Time,TemperatureF,DewpointF,PressureIn,WindDirection,WindDirectionDegrees,WindSpeedMPH,WindSpeedGustMPH,Humidity,HourlyPrecipIn,Conditions,Clouds,dailyrainin,SolarRadiationWatts/m^2,SoftwareType,DateUTC
2013-10-12 00:04:00,61.2,51.7,29.99,SE,144,11.0,12.0,71,0.00,,,0.00,0,Wunderground v.1.15,2013-10-12 05:04:00,
2013-10-12 00:05:00,61.2,51.3,29.99,SSE,158,6.0,12.0,70,0.00,,,0.00,0,Wunderground v.1.15,2013-10-12 05:05:00,
2013-10-12 00:06:00,61.2,51.3,29.99,SE,146,6.0,12.0,70,0.00,,,0.00,0,Wunderground v.1.15,2013-10-12 05:06:00,
2013-10-12 00:07:00,61.2,51.7,29.99,ESE,121,15.0,15.0,71,0.00,,,0.00,0,Wunderground v.1.15,2013-10-12 05:07:00,
2013-10-12 00:12:00,61.2,51.3,29.99,SSE,149,9.0,9.0,70,0.00,,,0.00,0,Wunderground v.1.15,2013-10-12 05:12:00,
2013-10-12 00:13:00,61.3,51.4,29.99,SE,126,4.0,9.0,70,0.00,,,0.00,0,Wunderground v.1.15,2013-10-12 05:13:00,
2013-10-12 00:14:00,61.3,51.4,29.99,ESE,116,8.0,9.0,70,0.00,,,0.00,0,Wunderground v.1.15,2013-10-12 05:14:00,
2013-10-12 00:17:00,61.4,51.5,29.99,SSE,153,9.0,9.0,70,0.00,,,0.00,0,Wunderground v.1.15,2013-10-12 05:17:00,
2013-10-12 00:19:00,61.4,51.5,29.99,SE,132,11.0,11.0,70,0.00,,,0.00,0,Wunderground v.1.15,2013-10-12 05:19:00,
2013-10-12 00:20:00,61.4,51.5,29.98,ESE,122,8.0,8.0,70,0.00,,,0.00,0,Wunderground v.1.15,2013-10-12 05:20:00,
2013-10-12 00:21:00,61.4,51.5,29.99,ESE,120,7.0,11.0,70,0.00,,,0.00,0,Wunderground v.1.15,2013-10-12 05:21:00,
2013-10-12 00:24:00,61.5,51.6,29.99,SSE,148,10.0,17.0,70,0.00,,,0.00,0,Wunderground v.1.15,2013-10-12 05:24:00,
2013-10-12 00:26:00,61.6,51.7,29.99,SE,146,11.0,17.0,70,0.00,,,0.00,0,Wunderground v.1.15,2013-10-12 05:26:00,
2013-10-12 00:27:00,61.6,51.7,29.99,SSE,149,5.0,17.0,70,0.00,,,0.00,0,Wunderground v.1.15,2013-10-12 05:27:00,
2013-10-12 00:29:00,61.7,51.8,29.99,ESE,118,8.0,17.0,70,0.00,,,0.00,0,Wunderground v.1.15,2013-10-12 05:29:00,
2013-10-12 00:31:00,61.8,51.9,29.99,SSE,147,6.0,9.0,70,0.00,,,0.00,0,Wunderground v.1.15,2013-10-12 05:31:00,
2013-10-12 00:32:00,61.8,51.9,29.99,SE,146,8.0,9.0,70,0.00,,,0.00,0,Wunderground v.1.15,2013-10-12 05:32:00,
2013-10-12 00:33:00,61.8,51.9,29.99,SSE,148,8.0,12.0,70,0.00,,,0.00,0,Wunderground v.1.15,2013-10-12 05:33:00,
2013-10-12 00:36:00,61.9,52.0,29.99,SE,143,9.0,12.0,70,0.00,,,0.00,0,Wunderground v.1.15,2013-10-12 05:36:00,
2013-10-12 00:38:00,61.8,51.9,29.99,ESE,122,5.0,12.0,70,0.00,,,0.00,0,Wunderground v.1.15,2013-10-12 05:38:00,
2013-10-12 00:39:00,61.8,51.9,29.99,SE,140,19.0,19.0,70,0.00,,,0.00,0,Wunderground v.1.15,2013-10-12 05:39:00,
2013-10-12 00:44:00,61.8,52.3,29.99,SE,140,6.0,12.0,71,0.00,,,0.00,0,Wunderground v.1.15,2013-10-12 05:44:00,
2013-10-12 00:45:00,61.8,52.3,29.99,SE,145,8.0,12.0,71,0.00,,,0.00,0,Wunderground v.1.15,2013-10-12 05:45:00,
2013-10-12 00:47:00,61.8,52.3,29.99,SSE,155,8.0,12.0,71,0.00,,,0.00,0,Wunderground v.1.15,2013-10-12 05:47:00,
2013-10-12 00:48:00,61.8,52.3,29.99,SSE,153,12.0,12.0,71,0.00,,,0.00,0,Wunderground v.1.15,2013-10-12 05:48:00,
2013-10-12 00:51:00,61.8,52.3,29.99,SE,143,9.0,13.0,71,0.00,,,0.00,0,Wunderground v.1.15,2013-10-12 05:51:00,
2013-10-12 00:52:00,61.7,52.2,29.99,SE,145,12.0,13.0,71,0.00,,,0.00,0,Wunderground v.1.15,2013-10-12 05:52:00,
2013-10-12 00:53:00,61.7,52.2,29.99,SE,140,8.0,13.0,71,0.00,,,0.00,0,Wunderground v.1.15,2013-10-12 05:53:00,
2013-10-12 00:56:00,61.7,52.2,29.99,SE,132,13.0,13.0,71,0.00,,,0.00,0,Wunderground v.1.15,2013-10-12 05:56:00,
2013-10-12 01:00:00,61.7,52.2,29.99,SE,138,14.0,14.0,71,0.00,,,0.00,0,Wunderground v.1.15,2013-10-12 06:00:00,
2013-10-12 01:01:00,61.7,52.2,29.99,SSE,167,10.0,14.0,71,0.00,,,0.00,0,Wunderground v.1.15,2013-10-12 06:01:00,
2013-10-12 01:03:00,61.7,52.2,29.99,SE,144,13.0,14.0,71,0.00,,,0.00,0,Wunderground v.1.15,2013-10-12 06:03:00,
2013-10-12 01:04:00,61.7,52.2,29.99,SE,141,9.0,14.0,71,0.00,,,0.00,0,Wunderground v.1.15,2013-10-12 06:04:00,
2013-10-12 01:05:00,61.7,52.2,29.99,SE,130,13.0,14.0,71,0.00,,,0.00,0,Wunderground v.1.15,2013-10-12 06:05:00,
2013-10-12 01:08:00,61.8,52.3,29.98,SSE,147,10.0,14.0,71,0.00,,,0.00,0,Wunderground v.1.15,2013-10-12 06:08:00,
2013-10-12 01:09:00,61.8,52.7,29.98,SE,124,15.0,15.0,72,0.00,,,0.00,0,Wunderground v.1.15,2013-10-12 06:09:00,
2013-10-12 01:11:00,61.8,52.3,29.98,SSE,151,7.0,15.0,71,0.00,,,0.00,0,Wunderground v.1.15,2013-10-12 06:11:00,
2013-10-12 01:14:00,61.8,52.7,29.98,SE,128,9.0,15.0,72,0.00,,,0.00,0,Wunderground v.1.15,2013-10-12 06:14:00,
2013-10-12 01:16:00,61.8,52.7,29.98,SSE,152,9.0,15.0,72,0.00,,,0.00,0,Wunderground v.1.15,2013-10-12 06:16:00,
2013-10-12 01:18:00,61.7,52.6,29.98,SE,132,18.0,18.0,72,0.00,,,0.00,0,Wunderground v.1.15,2013-10-12 06:18:00,
2013-10-12 01:19:00,61.7,52.6,29.98,SE,140,9.0,18.0,72,0.00,,,0.00,0,Wunderground v.1.15,2013-10-12 06:19:00,
2013-10-12 01:20:00,61.7,52.6,29.98,SE,145,12.0,12.0,72,0.00,,,0.00,0,Wunderground v.1.15,2013-10-12 06:20:00,
2013-10-12 01:24:00,61.7,52.6,29.98,SE,126,9.0,17.0,72,0.00,,,0.00,0,Wunderground v.1.15,2013-10-12 06:24:00,
2013-10-12 01:26:00,61.7,52.6,29.98,SE,130,9.0,17.0,72,0.00,,,0.00,0,Wunderground v.1.15,2013-10-12 06:26:00,
2013-10-12 01:30:00,61.7,52.6,29.98,SSE,154,13.0,13.0,72,0.00,,,0.00,0,Wunderground v.1.15,2013-10-12 06:30:00,
2013-10-12 01:31:00,61.7,52.6,29.98,SE,140,12.0,13.0,72,0.00,,,0.00,0,Wunderground v.1.15,2013-10-12 06:31:00,
2013-10-12 01:34:00,61.7,52.6,29.98,SSE,155,12.0,13.0,72,0.00,,,0.00,0,Wunderground v.1.15,2013-10-12 06:34:00,
2013-10-12 01:35:00,61.7,52.6,29.98,SSE,153,9.0,13.0,72,0.00,,,0.00,0,Wunderground v.1.15,2013-10-12 06:35:00,
2013-10-12 01:36:00,61.7,53.0,29.98,SE,130,11.0,13.0,73,0.00,,,0.00,0,Wunderground v.1.15,2013-10-12 06:36:00,
2013-10-12 01:37:00,61.7,53.0,29.98,ESE,117,16.0,16.0,73,0.00,,,0.00,0,Wunderground v.1.15,2013-10-12 06:37:00,
2013-10-12 01:38:00,61.6,52.9,29.98,SSE,149,11.0,16.0,73,0.00,,,0.00,0,Wunderground v.1.15,2013-10-12 06:38:00,
2013-10-12 01:40:00,61.7,53.0,29.98,SSE,163,12.0,12.0,73,0.00,,,0.00,0,Wunderground v.1.15,2013-10-12 06:40:00,
2013-10-12 01:44:00,61.7,53.0,29.98,SSE,157,9.0,12.0,73,0.00,,,0.00,0,Wunderground v.1.15,2013-10-12 06:44:00,
2013-10-12 01:45:00,61.7,53.0,29.98,SE,145,15.0,15.0,73,0.00,,,0.00,0,Wunderground v.1.15,2013-10-12 06:45:00,
2013-10-12 01:46:00,61.7,53.0,29.98,SE,135,9.0,15.0,73,0.00,,,0.00,0,Wunderground v.1.15,2013-10-12 06:46:00,
2013-10-12 01:48:00,61.7,53.0,29.98,SSE,164,9.0,15.0,73,0.00,,,0.00,0,Wunderground v.1.15,2013-10-12 06:48:00,
2013-10-12 01:51:00,61.7,53.0,29.98,SSE,151,8.0,11.0,73,0.00,,,0.00,0,Wunderground v.1.15,2013-10-12 06:51:00,
2013-10-12 01:52:00,61.6,52.9,29.98,SE,141,11.0,11.0,73,0.00,,,0.00,0,Wunderground v.1.15,2013-10-12 06:52:00,
2013-10-12 01:55:00,61.6,52.9,29.98,SSE,162,13.0,13.0,73,0.00,,,0.00,0,Wunderground v.1.15,2013-10-12 06:55:00,
2013-10-12 01:57:00,61.7,53.0,29.98,SE,144,8.0,13.0,73,0.00,,,0.00,0,Wunderground v.1.15,2013-10-12 06:57:00,
2013-10-12 01:58:00,61.7,53.0,29.98,SSE,153,15.0,15.0,73,0.00,,,0.00,0,Wunderground v.1.15,2013-10-12 06:58:00,
2013-10-12 01:59:00,61.7,53.0,29.98,SE,144,15.0,15.0,73,0.00,,,0.00,0,Wunderground v.1.15,2013-10-12 06:59:00,
2013-10-12 02:01:00,61.7,53.0,29.98,SE,137,10.0,14.0,73,0.00,,,0.00,0,Wunderground v.1.15,2013-10-12 07:01:00,
2013-10-12 02:02:00,61.7,53.3,29.98,South,173,9.0,14.0,74,0.00,,,0.00,0,Wunderground v.1.15,2013-10-12 07:02:00,
2013-10-12 02:03:00,61.7,53.3,29.98,SE,134,7.0,18.0,74,0.00,,,0.00,0,Wunderground v.1.15,2013-10-12 07:03:00,
2013-10-12 02:04:00,61.7,53.3,29.98,SSE,147,11.0,18.0,74,0.00,,,0.00,0,Wunderground v.1.15,2013-10-12 07:04:00,
2013-10-12 02:05:00,61.7,53.3,29.98,SSE,161,14.0,18.0,74,0.00,,,0.00,0,Wunderground v.1.15,2013-10-12 07:05:00,
2013-10-12 02:06:00,61.7,53.3,29.98,SE,139,15.0,18.0,74,0.00,,,0.00,0,Wunderground v.1.15,2013-10-12 07:06:00,
2013-10-12 02:07:00,61.7,53.3,29.98,SE,142,13.0,18.0,74,0.00,,,0.00,0,Wunderground v.1.15,2013-10-12 07:07:00,
2013-10-12 02:08:00,61.8,53.4,29.98,South,178,15.0,18.0,74,0.00,,,0.00,0,Wunderground v.1.15,2013-10-12 07:08:00,
2013-10-12 02:09:00,61.8,53.4,29.98,SE,146,9.0,18.0,74,0.00,,,0.00,0,Wunderground v.1.15,2013-10-12 07:09:00,
2013-10-12 02:11:00,61.8,53.4,29.98,SE,130,15.0,18.0,74,0.00,,,0.00,0,Wunderground v.1.15,2013-10-12 07:11:00,
2013-10-12 02:12:00,61.8,53.4,29.98,SE,144,8.0,18.0,74,0.00,,,0.00,0,Wunderground v.1.15,2013-10-12 07:12:00,
2013-10-12 02:13:00,61.7,53.3,29.98,SE,126,13.0,18.0,74,0.00,,,0.00,0,Wunderground v.1.15,2013-10-12 07:13:00,
2013-10-12 02:14:00,61.8,53.4,29.98,SSE,159,10.0,18.0,74,0.00,,,0.00,0,Wunderground v.1.15,2013-10-12 07:14:00,
2013-10-12 02:16:00,61.8,53.4,29.98,SE,138,9.0,18.0,74,0.00,,,0.00,0,Wunderground v.1.15,2013-10-12 07:16:00,
2013-10-12 02:17:00,61.8,53.4,29.98,SE,143,7.0,18.0,74,0.00,,,0.00,0,Wunderground v.1.15,2013-10-12 07:17:00,
2013-10-12 02:18:00,61.8,53.4,29.98,SSE,168,14.0,18.0,74,0.00,,,0.00,0,Wunderground v.1.15,2013-10-12 07:18:00,
2013-10-12 02:19:00,61.8,53.4,29.98,SE,140,13.0,18.0,74,0.00,,,0.00,0,Wunderground v.1.15,2013-10-12 07:19:00,
2013-10-12 02:21:00,61.7,53.3,29.98,SSE,156,11.0,15.0,74,0.00,,,0.00,0,Wunderground v.1.15,2013-10-12 07:21:00,
2013-10-12 02:22:00,61.7,53.3,29.98,ESE,123,9.0,15.0,74,0.00,,,0.00,0,Wunderground v.1.15,2013-10-12 07:22:00,
2013-10-12 02:23:00,61.7,53.3,29.98,SE,146,12.0,15.0,74,0.00,,,0.00,0,Wunderground v.1.15,2013-10-12 07:23:00,
2013-10-12 02:24:00,61.7,53.3,29.98,SSE,163,12.0,17.0,74,0.00,,,0.00,0,Wunderground v.1.15,2013-10-12 07:24:00,
2013-10-12 02:26:00,61.7,53.3,29.98,ESE,119,11.0,18.0,74,0.00,,,0.00,0,Wunderground v.1.15,2013-10-12 07:26:00,
2013-10-12 02:27:00,61.7,53.3,29.98,SSE,160,10.0,18.0,74,0.00,,,0.00,0,Wunderground v.1.15,2013-10-12 07:27:00,
2013-10-12 02:28:00,61.7,53.3,29.98,SSE,153,12.0,18.0,74,0.00,,,0.00,0,Wunderground v.1.15,2013-10-12 07:28:00,
2013-10-12 02:29:00,61.7,53.3,29.98,SSE,153,9.0,18.0,74,0.00,,,0.00,0,Wunderground v.1.15,2013-10-12 07:29:00,
2013-10-12 02:31:00,61.7,53.3,29.97,SE,130,8.0,18.0,74,0.00,,,0.00,0,Wunderground v.1.15,2013-10-12 07:31:00,
2013-10-12 02:32:00,61.7,53.3,29.98,SE,146,8.0,18.0,74,0.00,,,0.00,0,Wunderground v.1.15,2013-10-12 07:32:00,
2013-10-12 02:33:00,61.7,53.3,29.98,SSE,149,13.0,18.0,74,0.00,,,0.00,0,Wunderground v.1.15,2013-10-12 07:33:00,
2013-10-12 02:34:00,61.7,54.1,29.97,SSE,150,11.0,19.0,76,0.00,,,0.00,0,Wunderground v.1.15,2013-10-12 07:34:00,
2013-10-12 02:36:00,61.8,53.8,29.98,SSE,155,9.0,19.0,75,0.00,,,0.00,0,Wunderground v.1.15,2013-10-12 07:36:00,
2013-10-12 02:37:00,61.7,53.7,29.97,SSE,164,14.0,19.0,75,0.00,,,0.00,0,Wunderground v.1.15,2013-10-12 07:37:00,
2013-10-12 02:38:00,61.7,53.7,29.98,SSE,163,14.0,19.0,75,0.00,,,0.00,0,Wunderground v.1.15,2013-10-12 07:38:00,
2013-10-12 02:39:00,61.8,53.8,29.97,SSE,152,7.0,12.0,75,0.00,,,0.00,0,Wunderground v.1.15,2013-10-12 07:39:00,
2013-10-12 02:40:00,61.8,53.8,29.97,SSE,154,10.0,12.0,75,0.00,,,0.00,0,Wunderground v.1.15,2013-10-12 07:40:00,
2013-10-12 02:42:00,61.8,53.8,29.98,SSE,147,10.0,17.0,75,0.00,,,0.00,0,Wunderground v.1.15,2013-10-12 07:42:00,
2013-10-12 02:43:00,61.8,53.8,29.98,ESE,117,12.0,17.0,75,0.00,,,0.00,0,Wunderground v.1.15,2013-10-12 07:43:00,
2013-10-12 02:44:00,61.8,53.8,29.98,SE,132,11.0,17.0,75,0.00,,,0.00,0,Wunderground v.1.15,2013-10-12 07:44:00,
2013-10-12 02:45:00,61.8,53.8,29.98,SSE,161,8.0,17.0,75,0.00,,,0.00,0,Wunderground v.1.15,2013-10-12 07:45:00,
2013-10-12 02:47:00,61.9,53.9,29.98,SSE,159,12.0,17.0,75,0.00,,,0.00,0,Wunderground v.1.15,2013-10-12 07:47:00,
2013-10-12 02:49:00,61.9,53.9,29.98,SE,144,9.0,17.0,75,0.00,,,0.00,0,Wunderground v.1.15,2013-10-12 07:49:00,
2013-10-12 02:50:00,62.0,54.0,29.98,SSE,161,8.0,12.0,75,0.00,,,0.00,0,Wunderground v.1.15,2013-10-12 07:50:00,
2013-10-12 02:52:00,62.0,54.0,29.98,SE,142,12.0,14.0,75,0.00,,,0.00,0,Wunderground v.1.15,2013-10-12 07:52:00,
2013-10-12 02:54:00,62.0,54.0,29.98,SSE,159,8.0,16.0,75,0.00,,,0.00,0,Wunderground v.1.15,2013-10-12 07:54:00,
2013-10-12 02:55:00,62.1,54.1,29.98,SE,139,10.0,16.0,75,0.00,,,0.00,0,Wunderground v.1.15,2013-10-12 07:55:00,
2013-10-12 02:56:00,62.1,54.1,29.98,SE,141,11.0,16.0,75,0.00,,,0.00,0,Wunderground v.1.15,2013-10-12 07:56:00,
2013-10-12 02:58:00,62.1,54.1,29.98,SSE,168,12.0,16.0,75,0.00,,,0.00,0,Wunderground v.1.15,2013-10-12 07:58:00,
2013-10-12 03:00:00,62.2,54.2,29.98,SSE,150,8.0,13.0,75,0.00,,,0.00,0,Wunderground v.1.15,2013-10-12 08:00:00,
2013-10-12 03:01:00,62.2,54.2,29.98,SSE,148,9.0,13.0,75,0.00,,,0.00,0,Wunderground v.1.15,2013-10-12 08:01:00,
2013-10-12 03:03:00,62.2,54.2,29.97,SE,143,10.0,14.0,75,0.00,,,0.00,0,Wunderground v.1.15,2013-10-12 08:03:00,
2013-10-12 03:05:00,62.3,54.3,29.97,SSE,157,10.0,17.0,75,0.00,,,0.00,0,Wunderground v.1.15,2013-10-12 08:05:00,
2013-10-12 03:06:00,62.3,54.3,29.97,SSE,150,7.0,17.0,75,0.00,,,0.00,0,Wunderground v.1.15,2013-10-12 08:06:00,
2013-10-12 03:08:00,62.3,54.3,29.97,SSE,157,13.0,17.0,75,0.00,,,0.00,0,Wunderground v.1.15,2013-10-12 08:08:00,
2013-10-12 03:10:00,62.3,54.3,29.97,SSE,148,12.0,13.0,75,0.00,,,0.00,0,Wunderground v.1.15,2013-10-12 08:10:00,
2013-10-12 03:11:00,62.3,54.3,29.97,SE,142,15.0,18.0,75,0.00,,,0.00,0,Wunderground v.1.15,2013-10-12 08:11:00,
2013-10-12 03:12:00,62.3,54.3,29.97,SSE,160,8.0,18.0,75,0.00,,,0.00,0,Wunderground v.1.15,2013-10-12 08:12:00,
2013-10-12 03:14:00,62.3,54.3,29.97,SSE,163,8.0,18.0,75,0.00,,,0.00,0,Wunderground v.1.15,2013-10-12 08:14:00,
2013-10-12 03:16:00,62.3,54.3,29.97,SSE,147,8.0,18.0,75,0.00,,,0.00,0,Wunderground v.1.15,2013-10-12 08:16:00,
2013-10-12 03:17:00,62.4,54.4,29.97,SE,132,6.0,18.0,75,0.00,,,0.00,0,Wunderground v.1.15,2013-10-12 08:17:00,
2013-10-12 03:19:00,62.5,54.5,29.97,SSE,155,10.0,18.0,75,0.00,,,0.00,0,Wunderground v.1.15,2013-10-12 08:19:00,
2013-10-12 03:21:00,62.5,54.5,29.97,SE,146,9.0,13.0,75,0.00,,,0.00,0,Wunderground v.1.15,2013-10-12 08:21:00,
2013-10-12 03:22:00,62.6,54.6,29.97,SE,137,6.0,13.0,75,0.00,,,0.00,0,Wunderground v.1.15,2013-10-12 08:22:00,
2013-10-12 03:23:00,62.6,54.6,29.97,SE,130,7.0,15.0,75,0.00,,,0.00,0,Wunderground v.1.15,2013-10-12 08:23:00,
2013-10-12 03:24:00,62.5,54.5,29.97,SE,145,7.0,15.0,75,0.00,,,0.00,0,Wunderground v.1.15,2013-10-12 08:24:00,
2013-10-12 03:26:00,62.5,54.5,29.97,SE,138,10.0,18.0,75,0.00,,,0.00,0,Wunderground v.1.15,2013-10-12 08:26:00,
2013-10-12 03:27:00,62.5,54.5,29.97,SE,136,6.0,18.0,75,0.00,,,0.00,0,Wunderground v.1.15,2013-10-12 08:27:00,
2013-10-12 03:28:00,62.5,54.5,29.97,ESE,116,6.0,18.0,75,0.00,,,0.00,0,Wunderground v.1.15,2013-10-12 08:28:00,
2013-10-12 03:29:00,62.5,54.5,29.96,SSE,167,11.0,18.0,75,0.00,,,0.00,0,Wunderground v.1.15,2013-10-12 08:29:00,
2013-10-12 03:31:00,62.6,54.6,29.96,SSE,155,16.0,18.0,75,0.00,,,0.00,0,Wunderground v.1.15,2013-10-12 08:31:00,
2013-10-12 03:32:00,62.6,54.6,29.97,SE,128,11.0,18.0,75,0.00,,,0.00,0,Wunderground v.1.15,2013-10-12 08:32:00,
2013-10-12 03:33:00,62.6,54.6,29.97,SE,128,13.0,18.0,75,0.00,,,0.00,0,Wunderground v.1.15,2013-10-12 08:33:00,
2013-10-12 03:34:00,62.6,54.6,29.97,SE,127,15.0,18.0,75,0.00,,,0.00,0,Wunderground v.1.15,2013-10-12 08:34:00,
2013-10-12 03:37:00,62.7,54.7,29.96,SSE,157,10.0,23.0,75,0.00,,,0.00,0,Wunderground v.1.15,2013-10-12 08:37:00,
2013-10-12 03:38:00,62.7,54.7,29.96,SE,138,9.0,23.0,75,0.00,,,0.00,0,Wunderground v.1.15,2013-10-12 08:38:00,
2013-10-12 03:39:00,62.7,54.7,29.96,ESE,121,11.0,23.0,75,0.00,,,0.00,0,Wunderground v.1.15,2013-10-12 08:39:00,
2013-10-12 03:40:00,62.8,54.8,29.96,ESE,123,14.0,15.0,75,0.00,,,0.00,0,Wunderground v.1.15,2013-10-12 08:40:00,
2013-10-12 03:42:00,62.7,54.7,29.96,SE,146,5.0,15.0,75,0.00,,,0.00,0,Wunderground v.1.15,2013-10-12 08:42:00,
2013-10-12 03:43:00,62.7,54.7,29.97,SE,132,16.0,16.0,75,0.00,,,0.00,0,Wunderground v.1.15,2013-10-12 08:43:00,
2013-10-12 03:44:00,62.7,54.7,29.96,SSE,167,13.0,16.0,75,0.00,,,0.00,0,Wunderground v.1.15,2013-10-12 08:44:00,
2013-10-12 03:45:00,62.7,54.7,29.96,SSE,166,14.0,17.0,75,0.00,,,0.00,0,Wunderground v.1.15,2013-10-12 08:45:00,
2013-10-12 03:47:00,62.8,54.8,29.96,SSE,155,11.0,17.0,75,0.00,,,0.00,0,Wunderground v.1.15,2013-10-12 08:47:00,
2013-10-12 03:48:00,62.8,54.8,29.96,SE,138,11.0,18.0,75,0.00,,,0.00,0,Wunderground v.1.15,2013-10-12 08:48:00,
2013-10-12 03:49:00,62.9,54.9,29.96,SSE,147,8.0,19.0,75,0.00,,,0.00,0,Wunderground v.1.15,2013-10-12 08:49:00,
2013-10-12 03:50:00,62.9,54.9,29.96,SSE,161,8.0,12.0,75,0.00,,,0.00,0,Wunderground v.1.15,2013-10-12 08:50:00,
2013-10-12 03:51:00,62.9,54.9,29.96,SE,143,14.0,19.0,75,0.00,,,0.00,0,Wunderground v.1.15,2013-10-12 08:51:00,
2013-10-12 03:52:00,63.0,54.9,29.96,SE,136,7.0,19.0,75,0.00,,,0.00,0,Wunderground v.1.15,2013-10-12 08:52:00,
2013-10-12 03:54:00,63.1,55.0,29.96,SE,141,11.0,19.0,75,0.00,,,0.00,0,Wunderground v.1.15,2013-10-12 08:54:00,
2013-10-12 03:55:00,63.1,55.0,29.96,SE,131,7.0,19.0,75,0.00,,,0.00,0,Wunderground v.1.15,2013-10-12 08:55:00,
2013-10-12 03:56:00,63.0,54.9,29.96,SSE,163,10.0,19.0,75,0.00,,,0.00,0,Wunderground v.1.15,2013-10-12 08:56:00,
2013-10-12 03:57:00,63.0,54.9,29.96,SSE,153,9.0,19.0,75,0.00,,,0.00,0,Wunderground v.1.15,2013-10-12 08:57:00,
2013-10-12 03:59:00,63.0,54.9,29.96,SSE,153,9.0,19.0,75,0.00,,,0.00,0,Wunderground v.1.15,2013-10-12 08:59:00,
2013-10-12 04:00:00,63.0,54.9,29.96,SE,138,10.0,13.0,75,0.00,,,0.00,0,Wunderground v.1.15,2013-10-12 09:00:00,
2013-10-12 04:02:00,63.0,54.9,29.96,SSE,152,12.0,13.0,75,0.00,,,0.00,0,Wunderground v.1.15,2013-10-12 09:02:00,
2013-10-12 04:04:00,63.0,55.3,29.96,SE,144,7.0,19.0,76,0.00,,,0.00,0,Wunderground v.1.15,2013-10-12 09:04:00,
2013-10-12 04:05:00,63.0,55.3,29.96,SE,140,9.0,19.0,76,0.00,,,0.00,0,Wunderground v.1.15,2013-10-12 09:05:00,
2013-10-12 04:07:00,63.0,55.3,29.96,SE,146,8.0,19.0,76,0.00,,,0.00,0,Wunderground v.1.15,2013-10-12 09:07:00,
2013-10-12 04:08:00,63.1,55.4,29.96,SSE,165,6.0,19.0,76,0.00,,,0.00,0,Wunderground v.1.15,2013-10-12 09:08:00,
2013-10-12 04:09:00,63.1,55.4,29.96,SE,139,10.0,19.0,76,0.00,,,0.00,0,Wunderground v.1.15,2013-10-12 09:09:00,
2013-10-12 04:10:00,63.2,55.5,29.96,SE,127,11.0,16.0,76,0.00,,,0.00,0,Wunderground v.1.15,2013-10-12 09:10:00,
2013-10-12 04:11:00,63.2,55.5,29.96,SSE,165,16.0,16.0,76,0.00,,,0.00,0,Wunderground v.1.15,2013-10-12 09:11:00,
2013-10-12 04:12:00,63.2,55.1,29.96,SSE,147,12.0,16.0,75,0.00,,,0.00,0,Wunderground v.1.15,2013-10-12 09:12:00,
2013-10-12 04:13:00,63.3,55.2,29.96,SSE,158,14.0,16.0,75,0.00,,,0.00,0,Wunderground v.1.15,2013-10-12 09:13:00,
2013-10-12 04:15:00,63.4,55.3,29.96,SSE,153,13.0,16.0,75,0.00,,,0.00,0,Wunderground v.1.15,2013-10-12 09:15:00,
2013-10-12 04:16:00,63.4,55.3,29.96,SE,135,9.0,16.0,75,0.00,,,0.00,0,Wunderground v.1.15,2013-10-12 09:16:00,
2013-10-12 04:17:00,63.5,55.4,29.96,SE,141,11.0,16.0,75,0.00,,,0.00,0,Wunderground v.1.15,2013-10-12 09:17:00,
2013-10-12 04:18:00,63.5,55.4,29.96,SSE,160,10.0,16.0,75,0.00,,,0.00,0,Wunderground v.1.15,2013-10-12 09:18:00,
2013-10-12 04:19:00,63.5,55.4,29.96,SSE,156,13.0,16.0,75,0.00,,,0.00,0,Wunderground v.1.15,2013-10-12 09:19:00,
2013-10-12 04:20:00,63.5,55.4,29.96,SSE,153,5.0,11.0,75,0.00,,,0.00,0,Wunderground v.1.15,2013-10-12 09:20:00,
2013-10-12 04:21:00,63.5,55.4,29.96,SSE,162,6.0,11.0,75,0.00,,,0.00,0,Wunderground v.1.15,2013-10-12 09:21:00,
2013-10-12 04:22:00,63.5,55.4,29.96,SSE,159,8.0,11.0,75,0.00,,,0.00,0,Wunderground v.1.15,2013-10-12 09:22:00,
2013-10-12 04:23:00,63.5,55.4,29.96,SE,138,11.0,12.0,75,0.00,,,0.00,0,Wunderground v.1.15,2013-10-12 09:23:00,
2013-10-12 04:24:00,63.5,55.4,29.96,SSE,151,13.0,13.0,75,0.00,,,0.00,0,Wunderground v.1.15,2013-10-12 09:24:00,
2013-10-12 04:25:00,63.5,55.4,29.96,SSE,163,10.0,13.0,75,0.00,,,0.00,0,Wunderground v.1.15,2013-10-12 09:25:00,
2013-10-12 04:26:00,63.5,55.4,29.96,South,188,5.0,13.0,75,0.00,,,0.00,0,Wunderground v.1.15,2013-10-12 09:26:00,
2013-10-12 04:27:00,63.5,55.4,29.96,SSE,165,12.0,16.0,75,0.00,,,0.00,0,Wunderground v.1.15,2013-10-12 09:27:00,
2013-10-12 04:28:00,63.5,55.4,29.96,SE,140,11.0,16.0,75,0.00,,,0.00,0,Wunderground v.1.15,2013-10-12 09:28:00,
2013-10-12 04:29:00,63.6,55.5,29.96,SSE,167,15.0,16.0,75,0.00,,,0.00,0,Wunderground v.1.15,2013-10-12 09:29:00,
2013-10-12 04:31:00,63.6,55.5,29.96,SSE,155,13.0,17.0,75,0.00,,,0.00,0,Wunderground v.1.15,2013-10-12 09:31:00,
2013-10-12 04:33:00,63.6,55.5,29.96,South,171,9.0,17.0,75,0.00,,,0.00,0,Wunderground v.1.15,2013-10-12 09:33:00,
2013-10-12 04:34:00,63.6,55.5,29.96,SSE,155,5.0,17.0,75,0.00,,,0.00,0,Wunderground v.1.15,2013-10-12 09:34:00,
2013-10-12 04:35:00,63.6,55.5,29.96,SE,143,5.0,17.0,75,0.00,,,0.00,0,Wunderground v.1.15,2013-10-12 09:35:00,
2013-10-12 04:36:00,63.6,55.5,29.95,SE,146,9.0,17.0,75,0.00,,,0.00,0,Wunderground v.1.15,2013-10-12 09:36:00,
2013-10-12 04:39:00,63.6,55.5,29.95,SSE,159,9.0,17.0,75,0.00,,,0.00,0,Wunderground v.1.15,2013-10-12 09:39:00,
2013-10-12 04:40:00,63.6,55.5,29.95,SE,144,12.0,12.0,75,0.00,,,0.00,0,Wunderground v.1.15,2013-10-12 09:40:00,
2013-10-12 04:42:00,63.6,55.5,29.95,SSE,148,11.0,12.0,75,0.00,,,0.00,0,Wunderground v.1.15,2013-10-12 09:42:00,
2013-10-12 04:44:00,63.6,55.9,29.95,SSE,157,10.0,14.0,76,0.00,,,0.00,0,Wunderground v.1.15,2013-10-12 09:44:00,
2013-10-12 04:45:00,63.6,55.5,29.95,SSE,165,9.0,14.0,75,0.00,,,0.00,0,Wunderground v.1.15,2013-10-12 09:45:00,
2013-10-12 04:46:00,63.6,55.9,29.95,SSE,161,6.0,14.0,76,0.00,,,0.00,0,Wunderground v.1.15,2013-10-12 09:46:00,
2013-10-12 04:47:00,63.6,55.9,29.95,South,177,4.0,14.0,76,0.00,,,0.00,0,Wunderground v.1.15,2013-10-12 09:47:00,
2013-10-12 04:49:00,63.6,55.9,29.95,South,175,13.0,14.0,76,0.00,,,0.00,0,Wunderground v.1.15,2013-10-12 09:49:00,
2013-10-12 04:50:00,63.6,55.5,29.95,SSE,150,9.0,11.0,75,0.00,,,0.00,0,Wunderground v.1.15,2013-10-12 09:50:00,
2013-10-12 04:51:00,63.6,55.5,29.95,SSE,154,6.0,11.0,75,0.00,,,0.00,0,Wunderground v.1.15,2013-10-12 09:51:00,
2013-10-12 04:52:00,63.6,55.9,29.95,SSE,161,9.0,11.0,76,0.00,,,0.00,0,Wunderground v.1.15,2013-10-12 09:52:00,
2013-10-12 04:53:00,63.6,55.5,29.95,South,171,5.0,11.0,75,0.00,,,0.00,0,Wunderground v.1.15,2013-10-12 09:53:00,
2013-10-12 04:55:00,63.6,55.9,29.95,SSE,164,6.0,11.0,76,0.00,,,0.00,0,Wunderground v.1.15,2013-10-12 09:55:00,
2013-10-12 04:56:00,63.6,55.9,29.95,SSE,159,7.0,12.0,76,0.00,,,0.00,0,Wunderground v.1.15,2013-10-12 09:56:00,
2013-10-12 04:57:00,63.6,55.9,29.95,SE,146,6.0,12.0,76,0.00,,,0.00,0,Wunderground v.1.15,2013-10-12 09:57:00,
2013-10-12 04:58:00,63.6,55.9,29.95,South,189,7.0,12.0,76,0.00,,,0.00,0,Wunderground v.1.15,2013-10-12 09:58:00,
2013-10-12 05:00:00,63.6,55.9,29.95,SSE,163,9.0,9.0,76,0.00,,,0.00,0,Wunderground v.1.15,2013-10-12 10:00:00,
2013-10-12 05:01:00,63.6,55.9,29.95,SSE,166,8.0,9.0,76,0.00,,,0.00,0,Wunderground v.1.15,2013-10-12 10:01:00,
2013-10-12 05:02:00,63.6,55.9,29.95,SSE,153,11.0,11.0,76,0.00,,,0.00,0,Wunderground v.1.15,2013-10-12 10:02:00,
2013-10-12 05:03:00,63.6,55.9,29.95,SSE,163,6.0,11.0,76,0.00,,,0.00,0,Wunderground v.1.15,2013-10-12 10:03:00,
2013-10-12 05:05:00,63.4,56.1,29.95,South,173,9.0,12.0,77,0.00,,,0.00,0,Wunderground v.1.15,2013-10-12 10:05:00,
2013-10-12 05:06:00,63.4,56.1,29.95,SE,136,4.0,12.0,77,0.00,,,0.00,0,Wunderground v.1.15,2013-10-12 10:06:00,
2013-10-12 05:07:00,63.3,56.0,29.95,SSE,153,10.0,13.0,77,0.00,,,0.00,0,Wunderground v.1.15,2013-10-12 10:07:00,
2013-10-12 05:08:00,63.3,56.0,29.95,SSE,158,9.0,13.0,77,0.00,,,0.00,0,Wunderground v.1.15,2013-10-12 10:08:00,
2013-10-12 05:09:00,63.2,55.9,29.96,SSE,163,9.0,13.0,77,0.00,,,0.00,0,Wunderground v.1.15,2013-10-12 10:09:00,
2013-10-12 05:10:00,63.1,56.1,29.96,SSE,161,9.0,9.0,78,0.00,,,0.00,0,Wunderground v.1.15,2013-10-12 10:10:00,
2013-10-12 05:11:00,63.1,56.1,29.96,South,171,7.0,9.0,78,0.00,,,0.00,0,Wunderground v.1.15,2013-10-12 10:11:00,
2013-10-12 05:12:00,63.1,56.1,29.96,SSE,155,5.0,9.0,78,0.00,,,0.00,0,Wunderground v.1.15,2013-10-12 10:12:00,
2013-10-12 05:13:00,63.0,56.0,29.96,SSE,155,7.0,9.0,78,0.00,,,0.00,0,Wunderground v.1.15,2013-10-12 10:13:00,
2013-10-12 05:14:00,63.0,56.0,29.96,SE,133,2.0,11.0,78,0.00,,,0.00,0,Wunderground v.1.15,2013-10-12 10:14:00,
2013-10-12 05:16:00,62.9,56.3,29.96,SSE,162,6.0,11.0,79,0.00,,,0.00,0,Wunderground v.1.15,2013-10-12 10:16:00,
2013-10-12 05:17:00,62.8,56.2,29.96,SSE,153,8.0,11.0,79,0.00,,,0.00,0,Wunderground v.1.15,2013-10-12 10:17:00,
2013-10-12 05:18:00,62.8,56.2,29.96,SSE,167,6.0,11.0,79,0.00,,,0.00,0,Wunderground v.1.15,2013-10-12 10:18:00,
2013-10-12 05:19:00,62.7,56.1,29.96,SSE,168,10.0,12.0,79,0.00,,,0.00,0,Wunderground v.1.15,2013-10-12 10:19:00,
2013-10-12 05:20:00,62.7,56.1,29.96,SSE,158,8.0,10.0,79,0.00,,,0.00,0,Wunderground v.1.15,2013-10-12 10:20:00,
2013-10-12 05:22:00,62.6,56.3,29.96,SE,142,13.0,13.0,80,0.00,,,0.00,0,Wunderground v.1.15,2013-10-12 10:22:00,
2013-10-12 05:24:00,62.5,56.2,29.96,ESE,120,12.0,19.0,80,0.00,,,0.00,0,Wunderground v.1.15,2013-10-12 10:24:00,
2013-10-12 05:26:00,62.4,56.5,29.96,SE,131,13.0,19.0,81,0.00,,,0.00,0,Wunderground v.1.15,2013-10-12 10:26:00,
2013-10-12 05:27:00,62.4,56.5,29.96,SE,140,11.0,19.0,81,0.00,,,0.00,0,Wunderground v.1.15,2013-10-12 10:27:00,
2013-10-12 05:28:00,62.3,56.4,29.96,SE,135,14.0,19.0,81,0.00,,,0.00,0,Wunderground v.1.15,2013-10-12 10:28:00,
2013-10-12 05:29:00,62.3,56.7,29.96,SE,136,18.0,19.0,82,0.00,,,0.00,0,Wunderground v.1.15,2013-10-12 10:29:00,
2013-10-12 05:31:00,62.2,56.6,29.96,SE,138,8.0,19.0,82,0.00,,,0.00,0,Wunderground v.1.15,2013-10-12 10:31:00,
2013-10-12 05:32:00,62.2,56.6,29.95,SE,135,20.0,20.0,82,0.00,,,0.00,0,Wunderground v.1.15,2013-10-12 10:32:00,
2013-10-12 05:33:00,62.1,56.5,29.95,SE,131,12.0,20.0,82,0.00,,,0.00,0,Wunderground v.1.15,2013-10-12 10:33:00,
2013-10-12 05:34:00,62.1,56.5,29.95,SSE,163,9.0,20.0,82,0.00,,,0.00,0,Wunderground v.1.15,2013-10-12 10:34:00,
2013-10-12 05:35:00,62.1,56.5,29.95,SE,134,13.0,20.0,82,0.00,,,0.00,0,Wunderground v.1.15,2013-10-12 10:35:00,
2013-10-12 05:37:00,62.0,56.8,29.96,SSE,148,7.0,20.0,83,0.00,,,0.00,0,Wunderground v.1.15,2013-10-12 10:37:00,
2013-10-12 05:38:00,62.0,57.1,29.95,SSE,153,10.0,20.0,84,0.00,,,0.00,0,Wunderground v.1.15,2013-10-12 10:38:00,
2013-10-12 05:39:00,62.0,57.1,29.95,SE,140,10.0,20.0,84,0.00,,,0.00,0,Wunderground v.1.15,2013-10-12 10:39:00,
2013-10-12 05:40:00,61.9,57.0,29.95,SE,134,9.0,13.0,84,0.00,,,0.00,0,Wunderground v.1.15,2013-10-12 10:40:00,
2013-10-12 05:42:00,61.9,57.3,29.95,SE,138,11.0,13.0,85,0.00,,,0.00,0,Wunderground v.1.15,2013-10-12 10:42:00,
2013-10-12 05:43:00,61.9,57.7,29.95,SE,126,16.0,18.0,86,0.00,,,0.00,0,Wunderground v.1.15,2013-10-12 10:43:00,
2013-10-12 05:44:00,61.9,58.0,29.95,SE,134,9.0,18.0,87,0.00,,,0.00,0,Wunderground v.1.15,2013-10-12 10:44:00,
2013-10-12 05:45:00,61.8,57.9,29.95,SSE,160,9.0,18.0,87,0.00,,,0.00,0,Wunderground v.1.15,2013-10-12 10:45:00,
2013-10-12 05:47:00,61.8,57.9,29.95,SE,131,17.0,21.0,87,0.00,,,0.00,0,Wunderground v.1.15,2013-10-12 10:47:00,
2013-10-12 05:48:00,61.8,57.9,29.95,SSE,156,12.0,21.0,87,0.00,,,0.00,0,Wunderground v.1.15,2013-10-12 10:48:00,
2013-10-12 05:49:00,61.8,57.9,29.95,SSE,153,12.0,21.0,87,0.00,,,0.00,0,Wunderground v.1.15,2013-10-12 10:49:00,
2013-10-12 05:50:00,61.8,57.9,29.95,SE,133,13.0,13.0,87,0.00,,,0.00,0,Wunderground v.1.15,2013-10-12 10:50:00,
2013-10-12 05:52:00,61.8,57.9,29.96,South,174,13.0,13.0,87,0.00,,,0.00,0,Wunderground v.1.15,2013-10-12 10:52:00,
2013-10-12 05:53:00,61.8,57.9,29.96,South,171,7.0,13.0,87,0.00,,,0.00,0,Wunderground v.1.15,2013-10-12 10:53:00,
2013-10-12 05:54:00,61.8,57.9,29.96,SE,146,7.0,13.0,87,0.00,,,0.00,0,Wunderground v.1.15,2013-10-12 10:54:00,
2013-10-12 05:56:00,61.7,58.1,29.96,South,169,8.0,13.0,88,0.00,,,0.00,0,Wunderground v.1.15,2013-10-12 10:56:00,
2013-10-12 05:57:00,61.6,58.0,29.96,SSE,161,11.0,13.0,88,0.00,,,0.00,0,Wunderground v.1.15,2013-10-12 10:57:00,
2013-10-12 05:58:00,61.6,58.0,29.96,SSE,148,8.0,13.0,88,0.00,,,0.00,0,Wunderground v.1.15,2013-10-12 10:58:00,
2013-10-12 05:59:00,61.5,57.9,29.96,SSE,155,9.0,13.0,88,0.00,,,0.01,0,Wunderground v.1.15,2013-10-12 10:59:00,
2013-10-12 06:00:00,61.4,57.8,29.96,SSE,155,8.0,14.0,88,0.00,,,0.01,0,Wunderground v.1.15,2013-10-12 11:00:00,
2013-10-12 06:01:00,61.3,58.0,29.96,SSE,167,5.0,14.0,89,0.00,,,0.01,0,Wunderground v.1.15,2013-10-12 11:01:00,
2013-10-12 06:02:00,61.3,58.0,29.97,SSE,160,11.0,14.0,89,0.00,,,0.01,0,Wunderground v.1.15,2013-10-12 11:02:00,
2013-10-12 06:03:00,61.2,58.2,29.97,ESE,118,8.0,14.0,90,0.00,,,0.01,0,Wunderground v.1.15,2013-10-12 11:03:00,
2013-10-12 06:04:00,61.2,58.2,29.95,SSE,154,10.0,14.0,90,0.00,,,0.01,0,Wunderground v.1.15,2013-10-12 11:04:00,
2013-10-12 06:05:00,61.0,58.0,29.95,SSE,155,6.0,14.0,90,0.00,,,0.01,0,Wunderground v.1.15,2013-10-12 11:05:00,
2013-10-12 06:06:00,61.0,58.0,29.95,SE,144,8.0,14.0,90,0.00,,,0.01,0,Wunderground v.1.15,2013-10-12 11:06:00,
2013-10-12 06:07:00,61.0,58.4,29.95,SSE,156,6.0,14.0,91,0.00,,,0.01,0,Wunderground v.1.15,2013-10-12 11:07:00,
2013-10-12 06:08:00,60.9,58.3,29.95,SSE,165,6.0,14.0,91,0.00,,,0.01,0,Wunderground v.1.15,2013-10-12 11:08:00,
2013-10-12 06:09:00,60.9,58.3,29.95,SSE,154,11.0,14.0,91,0.00,,,0.01,0,Wunderground v.1.15,2013-10-12 11:09:00,
2013-10-12 06:11:00,60.9,58.3,29.95,SSE,152,11.0,13.0,91,0.00,,,0.01,0,Wunderground v.1.15,2013-10-12 11:11:00,
2013-10-12 06:12:00,60.8,58.2,29.95,SSE,163,8.0,13.0,91,0.00,,,0.01,0,Wunderground v.1.15,2013-10-12 11:12:00,
2013-10-12 06:13:00,60.8,58.5,29.95,SSE,166,11.0,13.0,92,0.00,,,0.01,0,Wunderground v.1.15,2013-10-12 11:13:00,
2013-10-12 06:14:00,60.8,58.2,29.96,SSE,167,7.0,13.0,91,0.00,,,0.01,0,Wunderground v.1.15,2013-10-12 11:14:00,
2013-10-12 06:15:00,60.8,58.5,29.96,SSW,192,9.0,13.0,92,0.00,,,0.01,0,Wunderground v.1.15,2013-10-12 11:15:00,
2013-10-12 06:16:00,60.8,58.5,29.95,South,169,8.0,13.0,92,0.00,,,0.01,0,Wunderground v.1.15,2013-10-12 11:16:00,
2013-10-12 06:18:00,60.7,58.4,29.96,South,179,12.0,13.0,92,0.00,,,0.01,0,Wunderground v.1.15,2013-10-12 11:18:00,
2013-10-12 06:19:00,60.7,58.4,29.96,SSE,150,10.0,13.0,92,0.00,,,0.01,0,Wunderground v.1.15,2013-10-12 11:19:00,
2013-10-12 06:20:00,60.7,58.4,29.96,SSE,162,14.0,14.0,92,0.00,,,0.01,0,Wunderground v.1.15,2013-10-12 11:20:00,
2013-10-12 06:21:00,60.7,58.4,29.95,SSE,157,10.0,15.0,92,0.00,,,0.01,0,Wunderground v.1.15,2013-10-12 11:21:00,
2013-10-12 06:22:00,60.7,58.4,29.95,SSE,152,14.0,15.0,92,0.00,,,0.01,0,Wunderground v.1.15,2013-10-12 11:22:00,
2013-10-12 06:23:00,60.7,58.4,29.95,SSE,157,10.0,15.0,92,0.00,,,0.01,0,Wunderground v.1.15,2013-10-12 11:23:00,
2013-10-12 06:24:00,60.7,58.4,29.95,South,189,8.0,15.0,92,0.00,,,0.01,0,Wunderground v.1.15,2013-10-12 11:24:00,
2013-10-12 06:25:00,60.7,58.4,29.95,SSE,158,11.0,15.0,92,0.00,,,0.01,0,Wunderground v.1.15,2013-10-12 11:25:00,
2013-10-12 06:26:00,60.7,58.4,29.95,South,169,6.0,15.0,92,0.00,,,0.01,0,Wunderground v.1.15,2013-10-12 11:26:00,
2013-10-12 06:28:00,60.7,58.4,29.95,South,175,5.0,15.0,92,0.00,,,0.01,0,Wunderground v.1.15,2013-10-12 11:28:00,
2013-10-12 06:30:00,60.6,58.3,29.95,South,176,7.0,9.0,92,0.00,,,0.01,0,Wunderground v.1.15,2013-10-12 11:30:00,
2013-10-12 06:31:00,60.6,58.3,29.95,SSE,161,8.0,11.0,92,0.00,,,0.01,0,Wunderground v.1.15,2013-10-12 11:31:00,
2013-10-12 06:33:00,60.6,58.3,29.95,SSE,168,11.0,13.0,92,0.00,,,0.01,0,Wunderground v.1.15,2013-10-12 11:33:00,
2013-10-12 06:35:00,60.6,58.6,29.95,SSE,160,7.0,13.0,93,0.00,,,0.01,0,Wunderground v.1.15,2013-10-12 11:35:00,
2013-10-12 06:36:00,60.7,58.7,29.95,SSE,161,6.0,13.0,93,0.00,,,0.01,0,Wunderground v.1.15,2013-10-12 11:36:00,
2013-10-12 06:37:00,60.6,58.6,29.95,SSE,153,6.0,13.0,93,0.00,,,0.01,0,Wunderground v.1.15,2013-10-12 11:37:00,
2013-10-12 06:38:00,60.6,58.6,29.95,SSE,165,10.0,13.0,93,0.00,,,0.01,0,Wunderground v.1.15,2013-10-12 11:38:00,
2013-10-12 06:39:00,60.6,58.6,29.95,SSE,163,7.0,13.0,93,0.00,,,0.01,0,Wunderground v.1.15,2013-10-12 11:39:00,
2013-10-12 06:40:00,60.7,58.7,29.95,SSE,155,9.0,9.0,93,0.00,,,0.01,0,Wunderground v.1.15,2013-10-12 11:40:00,
2013-10-12 06:41:00,60.7,58.7,29.95,SSE,147,11.0,11.0,93,0.00,,,0.01,0,Wunderground v.1.15,2013-10-12 11:41:00,
2013-10-12 06:42:00,60.7,58.4,29.95,SSE,159,8.0,11.0,92,0.00,,,0.01,0,Wunderground v.1.15,2013-10-12 11:42:00,
2013-10-12 06:43:00,60.7,58.4,29.95,SSE,164,6.0,11.0,92,0.00,,,0.01,0,Wunderground v.1.15,2013-10-12 11:43:00,
2013-10-12 06:45:00,60.7,58.4,29.95,SSE,168,12.0,13.0,92,0.00,,,0.01,0,Wunderground v.1.15,2013-10-12 11:45:00,
2013-10-12 06:46:00,60.7,58.4,29.95,South,173,9.0,13.0,92,0.00,,,0.01,0,Wunderground v.1.15,2013-10-12 11:46:00,
2013-10-12 06:47:00,60.7,58.4,29.95,SSE,151,8.0,13.0,92,0.00,,,0.01,0,Wunderground v.1.15,2013-10-12 11:47:00,
2013-10-12 06:48:00,60.7,58.4,29.95,South,173,7.0,13.0,92,0.00,,,0.01,0,Wunderground v.1.15,2013-10-12 11:48:00,
2013-10-12 06:50:00,60.8,58.5,29.95,SSE,161,11.0,14.0,92,0.00,,,0.01,0,Wunderground v.1.15,2013-10-12 11:50:00,
2013-10-12 06:51:00,60.8,58.5,29.95,SE,131,11.0,17.0,92,0.00,,,0.01,0,Wunderground v.1.15,2013-10-12 11:51:00,
2013-10-12 06:53:00,60.8,58.5,29.95,South,184,8.0,17.0,92,0.00,,,0.01,0,Wunderground v.1.15,2013-10-12 11:53:00,
2013-10-12 06:54:00,60.8,58.5,29.95,SSE,155,7.0,17.0,92,0.00,,,0.01,0,Wunderground v.1.15,2013-10-12 11:54:00,
2013-10-12 06:55:00,60.8,58.5,29.95,SSE,162,10.0,17.0,92,0.00,,,0.01,0,Wunderground v.1.15,2013-10-12 11:55:00,
2013-10-12 06:56:00,60.8,58.5,29.96,SSE,150,12.0,17.0,92,0.00,,,0.01,0,Wunderground v.1.15,2013-10-12 11:56:00,
2013-10-12 06:59:00,60.8,58.2,29.95,SE,142,11.0,17.0,91,0.00,,,0.01,0,Wunderground v.1.15,2013-10-12 11:59:00,
2013-10-12 07:00:00,60.8,58.2,29.96,South,178,8.0,10.0,91,0.00,,,0.01,0,Wunderground v.1.15,2013-10-12 12:00:00,
2013-10-12 07:01:00,60.8,58.2,29.95,SE,145,10.0,14.0,91,0.00,,,0.01,0,Wunderground v.1.15,2013-10-12 12:01:00,
2013-10-12 07:02:00,60.8,58.2,29.95,SSE,150,10.0,14.0,91,0.00,,,0.01,0,Wunderground v.1.15,2013-10-12 12:02:00,
2013-10-12 07:04:00,60.8,58.2,29.96,SSE,160,12.0,17.0,91,0.00,,,0.01,0,Wunderground v.1.15,2013-10-12 12:04:00,
2013-10-12 07:05:00,60.8,58.2,29.96,South,171,9.0,17.0,91,0.00,,,0.01,0,Wunderground v.1.15,2013-10-12 12:05:00,
2013-10-12 07:06:00,60.9,58.3,29.96,SSE,157,12.0,17.0,91,0.00,,,0.01,0,Wunderground v.1.15,2013-10-12 12:06:00,
2013-10-12 07:07:00,60.9,58.3,29.96,SE,140,10.0,17.0,91,0.00,,,0.01,0,Wunderground v.1.15,2013-10-12 12:07:00,
2013-10-12 07:08:00,60.9,58.3,29.95,SSE,161,10.0,17.0,91,0.00,,,0.01,0,Wunderground v.1.15,2013-10-12 12:08:00,
2013-10-12 07:09:00,60.9,57.9,29.96,SE,140,11.0,17.0,90,0.00,,,0.01,0,Wunderground v.1.15,2013-10-12 12:09:00,
2013-10-12 07:10:00,60.8,57.8,29.96,SSE,157,6.0,10.0,90,0.00,,,0.01,0,Wunderground v.1.15,2013-10-12 12:10:00,
2013-10-12 07:11:00,60.9,57.9,29.96,SSE,151,8.0,10.0,90,0.00,,,0.01,0,Wunderground v.1.15,2013-10-12 12:11:00,
2013-10-12 07:12:00,60.8,57.8,29.95,SSE,161,9.0,18.0,90,0.00,,,0.01,0,Wunderground v.1.15,2013-10-12 12:12:00,
2013-10-12 07:13:00,60.8,57.8,29.96,SSE,161,8.0,18.0,90,0.00,,,0.01,0,Wunderground v.1.15,2013-10-12 12:13:00,
2013-10-12 07:15:00,60.8,57.8,29.95,SE,144,9.0,18.0,90,0.00,,,0.01,0,Wunderground v.1.15,2013-10-12 12:15:00,
2013-10-12 07:16:00,60.8,57.8,29.95,SSE,155,9.0,18.0,90,0.00,,,0.01,0,Wunderground v.1.15,2013-10-12 12:16:00,
2013-10-12 07:17:00,60.8,57.8,29.95,SSE,156,12.0,18.0,90,0.00,,,0.01,0,Wunderground v.1.15,2013-10-12 12:17:00,
2013-10-12 07:19:00,60.8,57.8,29.95,SSE,155,9.0,18.0,90,0.00,,,0.01,0,Wunderground v.1.15,2013-10-12 12:19:00,
2013-10-12 07:20:00,60.8,57.8,29.95,SSE,156,6.0,10.0,90,0.00,,,0.01,5,Wunderground v.1.15,2013-10-12 12:20:00,
2013-10-12 07:21:00,60.8,57.8,29.95,SE,144,11.0,12.0,90,0.00,,,0.01,5,Wunderground v.1.15,2013-10-12 12:21:00,
2013-10-12 07:23:00,60.8,57.8,29.95,SSE,151,10.0,13.0,90,0.00,,,0.01,5,Wunderground v.1.15,2013-10-12 12:23:00,
2013-10-12 07:24:00,60.8,57.8,29.95,SSE,148,10.0,13.0,90,0.00,,,0.01,7,Wunderground v.1.15,2013-10-12 12:24:00,
2013-10-12 07:25:00,60.8,57.8,29.95,SSE,167,9.0,13.0,90,0.00,,,0.01,11,Wunderground v.1.15,2013-10-12 12:25:00,
2013-10-12 07:26:00,60.8,57.8,29.95,SSE,157,8.0,13.0,90,0.00,,,0.01,11,Wunderground v.1.15,2013-10-12 12:26:00,
2013-10-12 07:29:00,60.7,57.7,29.95,SSE,163,5.0,13.0,90,0.00,,,0.01,16,Wunderground v.1.15,2013-10-12 12:29:00,
2013-10-12 07:30:00,60.7,57.7,29.95,SSE,160,6.0,13.0,90,0.00,,,0.01,18,Wunderground v.1.15,2013-10-12 12:30:00,
2013-10-12 07:31:00,60.7,58.1,29.95,SSE,166,8.0,13.0,91,0.00,,,0.01,18,Wunderground v.1.15,2013-10-12 12:31:00,
2013-10-12 07:32:00,60.7,58.1,29.96,SSE,159,9.0,13.0,91,0.00,,,0.01,19,Wunderground v.1.15,2013-10-12 12:32:00,
2013-10-12 07:35:00,60.7,58.1,29.96,South,176,7.0,13.0,91,0.00,,,0.01,19,Wunderground v.1.15,2013-10-12 12:35:00,
2013-10-12 07:36:00,60.7,58.1,29.96,South,170,10.0,13.0,91,0.00,,,0.01,19,Wunderground v.1.15,2013-10-12 12:36:00,
2013-10-12 07:37:00,60.7,58.1,29.96,SSE,166,8.0,13.0,91,0.00,,,0.01,18,Wunderground v.1.15,2013-10-12 12:37:00,
2013-10-12 07:40:00,60.7,58.1,29.96,SSE,163,9.0,11.0,91,0.00,,,0.01,9,Wunderground v.1.15,2013-10-12 12:40:00,
2013-10-12 07:41:00,60.7,58.1,29.97,South,175,9.0,12.0,91,0.00,,,0.01,7,Wunderground v.1.15,2013-10-12 12:41:00,
2013-10-12 07:42:00,60.7,58.1,29.97,SSE,157,9.0,12.0,91,0.00,,,0.01,7,Wunderground v.1.15,2013-10-12 12:42:00,
2013-10-12 07:45:00,60.7,58.1,29.97,South,173,10.0,14.0,91,0.00,,,0.01,9,Wunderground v.1.15,2013-10-12 12:45:00,
2013-10-12 07:47:00,60.7,58.1,29.97,SE,146,6.0,14.0,91,0.00,,,0.01,12,Wunderground v.1.15,2013-10-12 12:47:00,
2013-10-12 07:51:00,60.8,58.2,29.97,SSE,165,9.0,14.0,91,0.00,,,0.01,19,Wunderground v.1.15,2013-10-12 12:51:00,
2013-10-12 07:52:00,60.8,58.2,29.97,SSE,163,9.0,14.0,91,0.00,,,0.01,25,Wunderground v.1.15,2013-10-12 12:52:00,
2013-10-12 07:54:00,60.8,58.2,29.97,SSE,149,5.0,14.0,91,0.00,,,0.01,35,Wunderground v.1.15,2013-10-12 12:54:00,
2013-10-12 07:56:00,60.8,58.2,29.97,SSE,152,8.0,14.0,91,0.00,,,0.01,40,Wunderground v.1.15,2013-10-12 12:56:00,
2013-10-12 07:57:00,60.8,58.2,29.97,SSE,159,7.0,14.0,91,0.00,,,0.01,37,Wunderground v.1.15,2013-10-12 12:57:00,
2013-10-12 07:58:00,60.8,58.2,29.97,SSE,159,7.0,14.0,91,0.00,,,0.01,39,Wunderground v.1.15,2013-10-12 12:58:00,
2013-10-12 07:59:00,60.7,58.1,29.97,South,172,9.0,14.0,91,0.00,,,0.01,42,Wunderground v.1.15,2013-10-12 12:59:00,
2013-10-12 08:01:00,60.8,58.2,29.97,South,175,7.0,10.0,91,0.00,,,0.01,53,Wunderground v.1.15,2013-10-12 13:01:00,
2013-10-12 08:02:00,60.7,58.1,29.97,South,184,6.0,10.0,91,0.00,,,0.01,56,Wunderground v.1.15,2013-10-12 13:02:00,
2013-10-12 08:04:00,60.8,58.2,29.97,SSE,148,8.0,11.0,91,0.00,,,0.01,60,Wunderground v.1.15,2013-10-12 13:04:00,
2013-10-12 08:07:00,60.8,58.5,29.97,SSE,167,7.0,13.0,92,0.00,,,0.01,54,Wunderground v.1.15,2013-10-12 13:07:00,
2013-10-12 08:08:00,60.9,58.6,29.97,SSE,153,9.0,13.0,92,0.00,,,0.01,54,Wunderground v.1.15,2013-10-12 13:08:00,
2013-10-12 08:09:00,60.9,58.6,29.97,SSE,161,10.0,13.0,92,0.00,,,0.01,54,Wunderground v.1.15,2013-10-12 13:09:00,
2013-10-12 08:12:00,61.0,58.4,29.97,South,173,6.0,11.0,91,0.00,,,0.01,58,Wunderground v.1.15,2013-10-12 13:12:00,
2013-10-12 08:13:00,61.0,58.4,29.97,South,172,5.0,11.0,91,0.00,,,0.01,58,Wunderground v.1.15,2013-10-12 13:13:00,
2013-10-12 08:14:00,61.1,58.5,29.97,SSE,159,9.0,11.0,91,0.00,,,0.01,65,Wunderground v.1.15,2013-10-12 13:14:00,
2013-10-12 08:18:00,61.2,58.6,29.97,South,182,8.0,14.0,91,0.00,,,0.01,83,Wunderground v.1.15,2013-10-12 13:18:00,
2013-10-12 08:19:00,61.2,58.6,29.97,SSE,162,7.0,14.0,91,0.00,,,0.01,86,Wunderground v.1.15,2013-10-12 13:19:00,
2013-10-12 08:20:00,61.2,58.6,29.97,South,180,4.0,8.0,91,0.00,,,0.01,91,Wunderground v.1.15,2013-10-12 13:20:00,
2013-10-12 08:23:00,61.3,58.7,29.97,South,171,6.0,13.0,91,0.00,,,0.01,104,Wunderground v.1.15,2013-10-12 13:23:00,
2013-10-12 08:24:00,61.3,58.7,29.97,SSE,162,8.0,13.0,91,0.00,,,0.01,104,Wunderground v.1.15,2013-10-12 13:24:00,
2013-10-12 08:25:00,61.4,58.7,29.97,SSE,163,11.0,13.0,91,0.00,,,0.01,109,Wunderground v.1.15,2013-10-12 13:25:00,
2013-10-12 08:29:00,61.5,58.8,29.97,SSW,199,7.0,13.0,91,0.00,,,0.01,144,Wunderground v.1.15,2013-10-12 13:29:00,
2013-10-12 08:30:00,61.6,58.9,29.97,SSE,168,8.0,12.0,91,0.00,,,0.01,77,Wunderground v.1.15,2013-10-12 13:30:00,
2013-10-12 08:34:00,61.6,58.6,29.97,SSE,152,9.0,12.0,90,0.00,,,0.01,84,Wunderground v.1.15,2013-10-12 13:34:00,
2013-10-12 08:35:00,61.6,58.6,29.97,SSE,161,9.0,14.0,90,0.00,,,0.01,86,Wunderground v.1.15,2013-10-12 13:35:00,
2013-10-12 08:36:00,61.6,58.6,29.97,SSE,168,8.0,14.0,90,0.00,,,0.01,84,Wunderground v.1.15,2013-10-12 13:36:00,
2013-10-12 08:39:00,61.7,58.7,29.97,South,175,5.0,14.0,90,0.00,,,0.01,65,Wunderground v.1.15,2013-10-12 13:39:00,
2013-10-12 08:40:00,61.7,58.7,29.98,South,170,6.0,10.0,90,0.00,,,0.01,62,Wunderground v.1.15,2013-10-12 13:40:00,
2013-10-12 08:41:00,61.6,58.6,29.98,South,173,6.0,11.0,90,0.00,,,0.01,58,Wunderground v.1.15,2013-10-12 13:41:00,
2013-10-12 08:44:00,61.7,58.7,29.98,South,182,4.0,13.0,90,0.00,,,0.01,40,Wunderground v.1.15,2013-10-12 13:44:00,
2013-10-12 08:45:00,61.6,58.6,29.98,South,190,7.0,13.0,90,0.00,,,0.01,40,Wunderground v.1.15,2013-10-12 13:45:00,
2013-10-12 08:46:00,61.6,58.6,29.98,SSE,166,6.0,13.0,90,0.00,,,0.01,44,Wunderground v.1.15,2013-10-12 13:46:00,
2013-10-12 08:49:00,61.6,58.6,29.98,SSW,192,4.0,13.0,90,0.00,,,0.01,51,Wunderground v.1.15,2013-10-12 13:49:00,
2013-10-12 08:50:00,61.7,58.7,29.98,SSW,194,7.0,7.0,90,0.00,,,0.01,51,Wunderground v.1.15,2013-10-12 13:50:00,
2013-10-12 08:51:00,61.7,58.7,29.98,South,186,6.0,7.0,90,0.00,,,0.01,56,Wunderground v.1.15,2013-10-12 13:51:00,
2013-10-12 08:52:00,61.7,58.7,29.98,South,184,3.0,7.0,90,0.00,,,0.01,58,Wunderground v.1.15,2013-10-12 13:52:00,
2013-10-12 08:54:00,61.7,58.7,29.98,South,169,6.0,8.0,90,0.00,,,0.01,51,Wunderground v.1.15,2013-10-12 13:54:00,
2013-10-12 08:55:00,61.7,58.7,29.98,South,173,7.0,8.0,90,0.00,,,0.01,51,Wunderground v.1.15,2013-10-12 13:55:00,
2013-10-12 08:58:00,61.7,58.7,29.98,SSE,153,6.0,9.0,90,0.00,,,0.01,67,Wunderground v.1.15,2013-10-12 13:58:00,
2013-10-12 08:59:00,61.8,58.8,29.98,South,172,9.0,10.0,90,0.00,,,0.01,95,Wunderground v.1.15,2013-10-12 13:59:00,
2013-10-12 09:00:00,61.8,58.8,29.98,SSE,163,7.0,7.0,90,0.00,,,0.01,95,Wunderground v.1.15,2013-10-12 14:00:00,
2013-10-12 09:02:00,61.8,58.8,29.98,SE,146,5.0,9.0,90,0.00,,,0.01,97,Wunderground v.1.15,2013-10-12 14:02:00,
2013-10-12 09:03:00,61.8,58.8,29.98,SSE,155,7.0,9.0,90,0.00,,,0.01,120,Wunderground v.1.15,2013-10-12 14:03:00,
2013-10-12 09:04:00,61.9,58.9,29.98,SSE,153,6.0,9.0,90,0.00,,,0.01,153,Wunderground v.1.15,2013-10-12 14:04:00,
2013-10-12 09:05:00,61.9,58.9,29.98,SSE,156,4.0,9.0,90,0.00,,,0.01,167,Wunderground v.1.15,2013-10-12 14:05:00,
2013-10-12 09:06:00,62.0,59.3,29.98,South,173,6.0,9.0,91,0.00,,,0.01,167,Wunderground v.1.15,2013-10-12 14:06:00,
2013-10-12 09:08:00,62.1,59.4,29.98,SSE,155,6.0,9.0,91,0.00,,,0.01,213,Wunderground v.1.15,2013-10-12 14:08:00,
2013-10-12 09:10:00,62.2,59.5,29.98,South,172,10.0,10.0,91,0.00,,,0.01,232,Wunderground v.1.15,2013-10-12 14:10:00,
2013-10-12 09:11:00,62.3,59.6,29.98,SE,131,8.0,10.0,91,0.00,,,0.01,255,Wunderground v.1.15,2013-10-12 14:11:00,
2013-10-12 09:13:00,62.5,59.5,29.98,SE,143,7.0,11.0,90,0.00,,,0.01,369,Wunderground v.1.15,2013-10-12 14:13:00,
2013-10-12 09:14:00,62.5,59.5,29.98,SSE,156,7.0,11.0,90,0.00,,,0.01,369,Wunderground v.1.15,2013-10-12 14:14:00,
2013-10-12 09:15:00,62.7,59.7,29.98,SSE,164,9.0,11.0,90,0.00,,,0.01,207,Wunderground v.1.15,2013-10-12 14:15:00,
2013-10-12 09:16:00,62.7,59.7,29.98,SSE,159,7.0,11.0,90,0.00,,,0.01,181,Wunderground v.1.15,2013-10-12 14:16:00,
2013-10-12 09:19:00,62.9,59.6,29.98,South,170,6.0,12.0,89,0.00,,,0.01,176,Wunderground v.1.15,2013-10-12 14:19:00,
2013-10-12 09:20:00,62.9,59.6,29.98,SSE,160,8.0,11.0,89,0.00,,,0.01,188,Wunderground v.1.15,2013-10-12 14:20:00,
2013-10-12 09:21:00,63.0,59.7,29.98,South,191,9.0,11.0,89,0.00,,,0.01,199,Wunderground v.1.15,2013-10-12 14:21:00,
2013-10-12 09:24:00,63.0,59.7,29.98,SSE,155,9.0,11.0,89,0.00,,,0.01,223,Wunderground v.1.15,2013-10-12 14:24:00,
2013-10-12 09:25:00,63.1,59.8,29.98,South,179,7.0,12.0,89,0.00,,,0.01,216,Wunderground v.1.15,2013-10-12 14:25:00,
2013-10-12 09:26:00,63.1,59.8,29.98,SSE,159,11.0,12.0,89,0.00,,,0.01,230,Wunderground v.1.15,2013-10-12 14:26:00,
2013-10-12 09:27:00,63.1,59.8,29.97,SSE,158,7.0,12.0,89,0.00,,,0.01,218,Wunderground v.1.15,2013-10-12 14:27:00,
2013-10-12 09:29:00,63.2,59.9,29.97,SSE,166,9.0,13.0,89,0.00,,,0.01,274,Wunderground v.1.15,2013-10-12 14:29:00,
2013-10-12 09:30:00,63.2,59.9,29.97,SE,142,6.0,10.0,89,0.00,,,0.01,274,Wunderground v.1.15,2013-10-12 14:30:00,
2013-10-12 09:31:00,63.2,59.9,29.97,SSE,153,10.0,10.0,89,0.00,,,0.01,281,Wunderground v.1.15,2013-10-12 14:31:00,
2013-10-12 09:32:00,63.2,59.9,29.97,SSE,162,6.0,12.0,89,0.00,,,0.01,279,Wunderground v.1.15,2013-10-12 14:32:00,
2013-10-12 09:34:00,63.4,59.8,29.97,SSE,167,9.0,12.0,88,0.00,,,0.01,359,Wunderground v.1.15,2013-10-12 14:34:00,
2013-10-12 09:35:00,63.4,59.8,29.98,South,173,11.0,12.0,88,0.00,,,0.01,385,Wunderground v.1.15,2013-10-12 14:35:00,
2013-10-12 09:36:00,63.5,59.9,29.98,South,186,7.0,12.0,88,0.00,,,0.01,292,Wunderground v.1.15,2013-10-12 14:36:00,
2013-10-12 09:37:00,63.5,60.2,29.97,SSE,164,9.0,12.0,89,0.00,,,0.01,257,Wunderground v.1.15,2013-10-12 14:37:00,
2013-10-12 09:39:00,63.7,60.1,29.98,South,191,5.0,12.0,88,0.00,,,0.01,202,Wunderground v.1.15,2013-10-12 14:39:00,
2013-10-12 09:40:00,63.8,60.2,29.98,SSE,160,6.0,8.0,88,0.00,,,0.01,142,Wunderground v.1.15,2013-10-12 14:40:00,
2013-10-12 09:41:00,63.8,60.2,29.98,SSW,192,4.0,9.0,88,0.00,,,0.01,91,Wunderground v.1.15,2013-10-12 14:41:00,
2013-10-12 09:42:00,63.9,60.3,29.98,South,186,7.0,12.0,88,0.00,,,0.01,86,Wunderground v.1.15,2013-10-12 14:42:00,
2013-10-12 09:45:00,63.8,60.2,29.98,SSE,153,10.0,12.0,88,0.00,,,0.01,83,Wunderground v.1.15,2013-10-12 14:45:00,
2013-10-12 09:46:00,63.8,60.2,29.98,South,173,10.0,14.0,88,0.00,,,0.01,86,Wunderground v.1.15,2013-10-12 14:46:00,
2013-10-12 09:47:00,63.8,60.2,29.98,SSW,196,9.0,14.0,88,0.00,,,0.01,86,Wunderground v.1.15,2013-10-12 14:47:00,
2013-10-12 09:51:00,63.8,60.2,29.98,South,188,6.0,8.0,88,0.00,,,0.01,130,Wunderground v.1.15,2013-10-12 14:51:00,
2013-10-12 09:52:00,63.8,60.2,29.98,South,173,6.0,8.0,88,0.00,,,0.01,139,Wunderground v.1.15,2013-10-12 14:52:00,
2013-10-12 09:53:00,63.8,60.2,29.98,SSE,168,9.0,9.0,88,0.00,,,0.01,163,Wunderground v.1.15,2013-10-12 14:53:00,
2013-10-12 09:56:00,64.0,60.4,29.99,South,173,11.0,11.0,88,0.00,,,0.01,167,Wunderground v.1.15,2013-10-12 14:56:00,
2013-10-12 09:57:00,64.1,60.5,29.99,South,171,6.0,11.0,88,0.00,,,0.01,181,Wunderground v.1.15,2013-10-12 14:57:00,
2013-10-12 09:58:00,64.2,60.6,29.98,SSW,196,7.0,11.0,88,0.00,,,0.01,258,Wunderground v.1.15,2013-10-12 14:58:00,
2013-10-12 10:01:00,64.4,60.8,29.98,SSE,159,9.0,9.0,88,0.00,,,0.01,313,Wunderground v.1.15,2013-10-12 15:01:00,
2013-10-12 10:02:00,64.5,60.9,29.98,SSE,165,7.0,12.0,88,0.00,,,0.01,383,Wunderground v.1.15,2013-10-12 15:02:00,
2013-10-12 10:03:00,64.5,60.9,29.98,SSE,149,11.0,12.0,88,0.00,,,0.01,376,Wunderground v.1.15,2013-10-12 15:03:00,
2013-10-12 10:04:00,64.7,60.7,29.98,South,171,9.0,12.0,87,0.00,,,0.01,380,Wunderground v.1.15,2013-10-12 15:04:00,
2013-10-12 10:07:00,65.0,61.0,29.98,SSE,167,7.0,12.0,87,0.00,,,0.01,325,Wunderground v.1.15,2013-10-12 15:07:00,
2013-10-12 10:08:00,65.0,61.0,29.98,SSE,161,10.0,12.0,87,0.00,,,0.01,327,Wunderground v.1.15,2013-10-12 15:08:00,
2013-10-12 10:09:00,65.1,60.8,29.98,SSE,157,7.0,12.0,86,0.00,,,0.01,320,Wunderground v.1.15,2013-10-12 15:09:00,
2013-10-12 10:10:00,65.2,60.9,29.98,SSE,160,11.0,11.0,86,0.00,,,0.01,295,Wunderground v.1.15,2013-10-12 15:10:00,
2013-10-12 10:12:00,65.3,61.0,29.98,SSE,167,8.0,11.0,86,0.00,,,0.01,396,Wunderground v.1.15,2013-10-12 15:12:00,
2013-10-12 10:13:00,65.3,61.0,29.98,SSE,164,9.0,11.0,86,0.00,,,0.01,396,Wunderground v.1.15,2013-10-12 15:13:00,
2013-10-12 10:14:00,65.4,60.8,29.98,SE,138,10.0,13.0,85,0.00,,,0.01,272,Wunderground v.1.15,2013-10-12 15:14:00,
2013-10-12 10:16:00,65.4,60.8,29.98,SSE,166,7.0,13.0,85,0.00,,,0.01,244,Wunderground v.1.15,2013-10-12 15:16:00,
2013-10-12 10:18:00,65.5,60.9,29.98,SSE,159,7.0,13.0,85,0.00,,,0.01,272,Wunderground v.1.15,2013-10-12 15:18:00,
2013-10-12 10:19:00,65.5,60.9,29.97,SSE,161,10.0,13.0,85,0.00,,,0.01,272,Wunderground v.1.15,2013-10-12 15:19:00,
2013-10-12 10:20:00,65.5,61.2,29.98,SE,146,11.0,12.0,86,0.00,,,0.01,250,Wunderground v.1.15,2013-10-12 15:20:00,
2013-10-12 10:21:00,65.6,61.0,29.97,SSE,150,6.0,12.0,85,0.00,,,0.01,253,Wunderground v.1.15,2013-10-12 15:21:00,
2013-10-12 10:23:00,65.6,61.0,29.97,SE,145,6.0,12.0,85,0.00,,,0.01,230,Wunderground v.1.15,2013-10-12 15:23:00,
2013-10-12 10:24:00,65.6,61.0,29.97,SSE,157,7.0,12.0,85,0.00,,,0.01,230,Wunderground v.1.15,2013-10-12 15:24:00,
2013-10-12 10:25:00,65.6,61.0,29.97,SE,127,6.0,12.0,85,0.00,,,0.01,225,Wunderground v.1.15,2013-10-12 15:25:00,
2013-10-12 10:26:00,65.6,61.0,29.97,SSE,159,2.0,12.0,85,0.00,,,0.01,202,Wunderground v.1.15,2013-10-12 15:26:00,
2013-10-12 10:28:00,65.6,61.0,29.97,SSE,157,10.0,13.0,85,0.00,,,0.01,188,Wunderground v.1.15,2013-10-12 15:28:00,
2013-10-12 10:29:00,65.5,60.9,29.97,SE,140,10.0,13.0,85,0.00,,,0.01,190,Wunderground v.1.15,2013-10-12 15:29:00,
2013-10-12 10:30:00,65.6,61.0,29.97,SSE,151,11.0,11.0,85,0.00,,,0.01,190,Wunderground v.1.15,2013-10-12 15:30:00,
2013-10-12 10:31:00,65.5,60.9,29.97,SE,136,12.0,15.0,85,0.00,,,0.01,195,Wunderground v.1.15,2013-10-12 15:31:00,
2013-10-12 10:33:00,65.5,60.9,29.97,ESE,112,13.0,15.0,85,0.00,,,0.01,204,Wunderground v.1.15,2013-10-12 15:33:00,
2013-10-12 10:34:00,65.4,60.8,29.97,SSE,163,14.0,15.0,85,0.00,,,0.01,204,Wunderground v.1.15,2013-10-12 15:34:00,
2013-10-12 10:35:00,65.4,60.8,29.97,SE,135,12.0,15.0,85,0.00,,,0.01,200,Wunderground v.1.15,2013-10-12 15:35:00,
2013-10-12 10:37:00,65.4,60.8,29.97,SSE,157,6.0,15.0,85,0.00,,,0.01,193,Wunderground v.1.15,2013-10-12 15:37:00,
2013-10-12 10:38:00,65.4,60.8,29.97,SE,146,9.0,15.0,85,0.00,,,0.01,169,Wunderground v.1.15,2013-10-12 15:38:00,
2013-10-12 10:39:00,65.4,61.1,29.97,SSE,150,8.0,15.0,86,0.00,,,0.01,169,Wunderground v.1.15,2013-10-12 15:39:00,
2013-10-12 10:40:00,65.4,61.1,29.97,SE,142,11.0,11.0,86,0.00,,,0.01,128,Wunderground v.1.15,2013-10-12 15:40:00,
2013-10-12 10:42:00,65.4,61.1,29.97,SSE,150,6.0,12.0,86,0.00,,,0.01,156,Wunderground v.1.15,2013-10-12 15:42:00,
2013-10-12 10:43:00,65.4,60.8,29.97,SE,136,7.0,13.0,85,0.00,,,0.01,141,Wunderground v.1.15,2013-10-12 15:43:00,
2013-10-12 10:44:00,65.3,60.7,29.97,SSE,148,5.0,13.0,85,0.00,,,0.01,130,Wunderground v.1.15,2013-10-12 15:44:00,
2013-10-12 10:45:00,65.3,61.0,29.97,SSE,168,8.0,13.0,86,0.00,,,0.01,128,Wunderground v.1.15,2013-10-12 15:45:00,
2013-10-12 10:47:00,65.3,61.0,29.97,SE,141,10.0,13.0,86,0.00,,,0.01,148,Wunderground v.1.15,2013-10-12 15:47:00,
2013-10-12 10:48:00,65.3,61.0,29.97,SE,132,9.0,13.0,86,0.00,,,0.01,158,Wunderground v.1.15,2013-10-12 15:48:00,
2013-10-12 10:49:00,65.2,60.9,29.97,SSE,148,9.0,9.0,86,0.00,,,0.01,169,Wunderground v.1.15,2013-10-12 15:49:00,
2013-10-12 10:50:00,65.2,60.9,29.97,SSE,161,6.0,9.0,86,0.00,,,0.01,169,Wunderground v.1.15,2013-10-12 15:50:00,
2013-10-12 10:51:00,65.2,60.9,29.97,SSE,165,6.0,9.0,86,0.00,,,0.01,174,Wunderground v.1.15,2013-10-12 15:51:00,
2013-10-12 10:52:00,65.1,60.8,29.97,SSE,147,7.0,9.0,86,0.00,,,0.01,218,Wunderground v.1.15,2013-10-12 15:52:00,
2013-10-12 10:54:00,65.1,61.1,29.97,South,185,5.0,9.0,87,0.00,,,0.01,366,Wunderground v.1.15,2013-10-12 15:54:00,
2013-10-12 10:55:00,65.2,61.2,29.97,South,169,5.0,9.0,87,0.00,,,0.01,366,Wunderground v.1.15,2013-10-12 15:55:00,
2013-10-12 10:56:00,65.2,61.2,29.97,South,169,7.0,9.0,87,0.00,,,0.01,366,Wunderground v.1.15,2013-10-12 15:56:00,
2013-10-12 10:58:00,65.4,61.4,29.97,South,187,6.0,11.0,87,0.00,,,0.01,366,Wunderground v.1.15,2013-10-12 15:58:00,
2013-10-12 11:00:00,65.5,61.2,29.98,SSE,161,5.0,10.0,86,0.00,,,0.01,221,Wunderground v.1.15,2013-10-12 16:00:00,
2013-10-12 11:01:00,65.5,61.2,29.98,South,178,9.0,10.0,86,0.00,,,0.01,227,Wunderground v.1.15,2013-10-12 16:01:00,
2013-10-12 11:03:00,65.6,61.3,29.98,South,180,7.0,10.0,86,0.00,,,0.01,244,Wunderground v.1.15,2013-10-12 16:03:00,
2013-10-12 11:05:00,65.7,61.7,29.98,SSE,157,11.0,12.0,87,0.00,,,0.01,148,Wunderground v.1.15,2013-10-12 16:05:00,
2013-10-12 11:06:00,65.7,61.4,29.98,SE,145,12.0,13.0,86,0.00,,,0.01,116,Wunderground v.1.15,2013-10-12 16:06:00,
2013-10-12 11:08:00,65.7,61.4,29.98,SSE,163,7.0,13.0,86,0.00,,,0.01,104,Wunderground v.1.15,2013-10-12 16:08:00,
2013-10-12 11:10:00,65.6,61.3,29.98,SSE,163,8.0,12.0,86,0.00,,,0.01,74,Wunderground v.1.15,2013-10-12 16:10:00,
2013-10-12 11:11:00,65.6,61.3,29.98,South,180,3.0,12.0,86,0.00,,,0.01,74,Wunderground v.1.15,2013-10-12 16:11:00,
2013-10-12 11:12:00,65.6,61.3,29.98,South,169,6.0,12.0,86,0.00,,,0.01,69,Wunderground v.1.15,2013-10-12 16:12:00,
2013-10-12 11:13:00,65.4,61.1,29.98,South,177,7.0,12.0,86,0.00,,,0.01,65,Wunderground v.1.15,2013-10-12 16:13:00,
2013-10-12 11:15:00,65.4,61.1,29.98,SSE,164,8.0,12.0,86,0.00,,,0.01,70,Wunderground v.1.15,2013-10-12 16:15:00,
2013-10-12 11:16:00,65.4,61.1,29.98,South,172,7.0,12.0,86,0.00,,,0.01,77,Wunderground v.1.15,2013-10-12 16:16:00,
2013-10-12 11:17:00,65.3,61.0,29.98,SSE,167,6.0,12.0,86,0.00,,,0.01,88,Wunderground v.1.15,2013-10-12 16:17:00,
2013-10-12 11:19:00,65.3,61.0,29.98,South,180,7.0,12.0,86,0.00,,,0.01,111,Wunderground v.1.15,2013-10-12 16:19:00,
2013-10-12 11:20:00,65.2,60.9,29.98,SSE,165,4.0,8.0,86,0.00,,,0.01,116,Wunderground v.1.15,2013-10-12 16:20:00,
2013-10-12 11:21:00,65.2,60.9,29.98,SSE,166,2.0,8.0,86,0.00,,,0.01,139,Wunderground v.1.15,2013-10-12 16:21:00,
2013-10-12 11:23:00,65.3,61.3,29.98,SSE,165,8.0,9.0,87,0.00,,,0.01,118,Wunderground v.1.15,2013-10-12 16:23:00,
2013-10-12 11:24:00,65.2,60.9,29.98,SSE,165,6.0,9.0,86,0.00,,,0.01,102,Wunderground v.1.15,2013-10-12 16:24:00,
2013-10-12 11:26:00,65.3,61.3,29.98,SSE,151,7.0,9.0,87,0.00,,,0.01,88,Wunderground v.1.15,2013-10-12 16:26:00,
2013-10-12 11:28:00,65.3,61.0,29.98,South,181,2.0,10.0,86,0.00,,,0.01,76,Wunderground v.1.15,2013-10-12 16:28:00,
2013-10-12 11:29:00,65.3,61.0,29.98,SSW,201,8.0,10.0,86,0.00,,,0.01,69,Wunderground v.1.15,2013-10-12 16:29:00,
2013-10-12 11:31:00,65.3,61.0,29.98,SSE,148,8.0,11.0,86,0.00,,,0.01,70,Wunderground v.1.15,2013-10-12 16:31:00,
2013-10-12 11:33:00,65.2,60.9,29.98,South,174,6.0,11.0,86,0.00,,,0.01,70,Wunderground v.1.15,2013-10-12 16:33:00,
2013-10-12 11:34:00,65.2,60.9,29.98,South,171,7.0,13.0,86,0.00,,,0.01,84,Wunderground v.1.15,2013-10-12 16:34:00,
2013-10-12 11:36:00,65.1,61.1,29.98,South,176,5.0,13.0,87,0.00,,,0.01,100,Wunderground v.1.15,2013-10-12 16:36:00,
2013-10-12 11:37:00,65.1,61.1,29.98,SSE,155,7.0,13.0,87,0.00,,,0.01,125,Wunderground v.1.15,2013-10-12 16:37:00,
2013-10-12 11:38:00,65.1,61.1,29.98,SSE,164,8.0,13.0,87,0.00,,,0.01,125,Wunderground v.1.15,2013-10-12 16:38:00,
2013-10-12 11:39:00,65.1,61.1,29.98,South,171,8.0,13.0,87,0.00,,,0.01,158,Wunderground v.1.15,2013-10-12 16:39:00,
2013-10-12 11:42:00,65.1,61.1,29.98,SSE,166,10.0,11.0,87,0.00,,,0.01,141,Wunderground v.1.15,2013-10-12 16:42:00,
2013-10-12 11:43:00,65.1,61.1,29.98,SSE,150,7.0,11.0,87,0.00,,,0.01,120,Wunderground v.1.15,2013-10-12 16:43:00,
2013-10-12 11:44:00,65.2,61.2,29.98,SSE,159,8.0,11.0,87,0.00,,,0.01,102,Wunderground v.1.15,2013-10-12 16:44:00,
2013-10-12 11:47:00,65.2,61.2,29.98,SSE,148,5.0,11.0,87,0.00,,,0.01,91,Wunderground v.1.15,2013-10-12 16:47:00,
2013-10-12 11:48:00,65.2,61.6,29.98,South,173,8.0,11.0,88,0.00,,,0.01,86,Wunderground v.1.15,2013-10-12 16:48:00,
2013-10-12 11:50:00,65.3,61.3,29.98,South,177,7.0,7.0,87,0.00,,,0.01,109,Wunderground v.1.15,2013-10-12 16:50:00,
2013-10-12 11:52:00,65.3,61.3,29.98,South,188,8.0,8.0,87,0.00,,,0.01,123,Wunderground v.1.15,2013-10-12 16:52:00,
2013-10-12 11:53:00,65.3,61.3,29.98,South,185,7.0,8.0,87,0.00,,,0.01,107,Wunderground v.1.15,2013-10-12 16:53:00,
2013-10-12 11:54:00,65.4,61.4,29.98,South,182,6.0,9.0,87,0.00,,,0.01,111,Wunderground v.1.15,2013-10-12 16:54:00,
2013-10-12 11:55:00,65.4,61.4,29.98,South,181,4.0,9.0,87,0.00,,,0.01,123,Wunderground v.1.15,2013-10-12 16:55:00,
2013-10-12 11:58:00,65.5,61.2,29.98,South,182,7.0,11.0,86,0.00,,,0.01,255,Wunderground v.1.15,2013-10-12 16:58:00,
2013-10-12 11:59:00,65.6,61.0,29.98,SSW,211,7.0,11.0,85,0.00,,,0.01,357,Wunderground v.1.15,2013-10-12 16:59:00,
2013-10-12 12:00:00,65.7,60.7,29.98,SSW,206,10.0,10.0,84,0.00,,,0.01,394,Wunderground v.1.15,2013-10-12 17:00:00,
2013-10-12 12:03:00,66.0,61.0,29.98,South,169,5.0,12.0,84,0.00,,,0.01,462,Wunderground v.1.15,2013-10-12 17:03:00,
2013-10-12 12:04:00,66.1,61.1,29.98,SSE,163,9.0,12.0,84,0.00,,,0.01,229,Wunderground v.1.15,2013-10-12 17:04:00,
2013-10-12 12:05:00,66.2,60.9,29.98,SSW,205,6.0,16.0,83,0.00,,,0.01,167,Wunderground v.1.15,2013-10-12 17:05:00,
2013-10-12 12:08:00,66.4,61.1,29.98,South,177,11.0,16.0,83,0.00,,,0.01,325,Wunderground v.1.15,2013-10-12 17:08:00,
2013-10-12 12:09:00,66.5,60.8,29.98,SSW,202,14.0,16.0,82,0.00,,,0.01,165,Wunderground v.1.15,2013-10-12 17:09:00,
2013-10-12 12:11:00,66.5,60.8,29.98,SSE,168,5.0,14.0,82,0.00,,,0.01,167,Wunderground v.1.15,2013-10-12 17:11:00,
2013-10-12 12:13:00,66.6,60.9,29.97,SSW,201,11.0,14.0,82,0.00,,,0.01,257,Wunderground v.1.15,2013-10-12 17:13:00,
2013-10-12 12:14:00,66.6,60.9,29.97,SSW,202,11.0,14.0,82,0.00,,,0.01,313,Wunderground v.1.15,2013-10-12 17:14:00,
2013-10-12 12:15:00,66.6,60.6,29.97,South,190,7.0,14.0,81,0.00,,,0.01,313,Wunderground v.1.15,2013-10-12 17:15:00,
2013-10-12 12:16:00,66.6,60.9,29.97,SSE,167,4.0,14.0,82,0.00,,,0.01,262,Wunderground v.1.15,2013-10-12 17:16:00,
2013-10-12 12:18:00,66.6,60.9,29.97,SSW,204,9.0,14.0,82,0.00,,,0.01,297,Wunderground v.1.15,2013-10-12 17:18:00,
2013-10-12 12:19:00,66.6,60.9,29.97,South,180,9.0,14.0,82,0.00,,,0.01,323,Wunderground v.1.15,2013-10-12 17:19:00,
2013-10-12 12:20:00,66.7,60.7,29.97,South,178,8.0,9.0,81,0.00,,,0.01,323,Wunderground v.1.15,2013-10-12 17:20:00,
2013-10-12 12:21:00,66.7,61.0,29.97,SSW,210,12.0,12.0,82,0.00,,,0.01,267,Wunderground v.1.15,2013-10-12 17:21:00,
2013-10-12 12:23:00,66.7,60.7,29.97,SSW,207,9.0,12.0,81,0.00,,,0.01,230,Wunderground v.1.15,2013-10-12 17:23:00,
2013-10-12 12:24:00,66.7,60.7,29.97,South,176,11.0,14.0,81,0.00,,,0.01,206,Wunderground v.1.15,2013-10-12 17:24:00,
2013-10-12 12:25:00,66.7,60.7,29.97,South,186,7.0,14.0,81,0.00,,,0.01,206,Wunderground v.1.15,2013-10-12 17:25:00,
2013-10-12 12:27:00,66.6,60.9,29.97,South,186,6.0,14.0,82,0.00,,,0.01,91,Wunderground v.1.15,2013-10-12 17:27:00,
2013-10-12 12:28:00,66.6,60.9,29.97,South,182,7.0,14.0,82,0.00,,,0.01,120,Wunderground v.1.15,2013-10-12 17:28:00,
2013-10-12 12:29:00,66.6,60.6,29.97,SW,217,13.0,14.0,81,0.00,,,0.01,149,Wunderground v.1.15,2013-10-12 17:29:00,
2013-10-12 12:30:00,66.6,60.6,29.97,SSW,193,5.0,9.0,81,0.00,,,0.01,183,Wunderground v.1.15,2013-10-12 17:30:00,
2013-10-12 12:32:00,66.5,60.5,29.97,SSW,196,9.0,11.0,81,0.00,,,0.01,274,Wunderground v.1.15,2013-10-12 17:32:00,
2013-10-12 12:33:00,66.7,61.0,29.97,SSW,198,8.0,11.0,82,0.00,,,0.01,274,Wunderground v.1.15,2013-10-12 17:33:00,
2013-10-12 12:34:00,66.7,61.0,29.97,SSW,192,4.0,11.0,82,0.00,,,0.01,274,Wunderground v.1.15,2013-10-12 17:34:00,
2013-10-12 12:35:00,66.8,61.5,29.97,South,182,6.0,11.0,83,0.00,,,0.01,274,Wunderground v.1.15,2013-10-12 17:35:00,
2013-10-12 12:38:00,67.2,60.8,29.97,South,182,9.0,16.0,80,0.00,,,0.01,276,Wunderground v.1.15,2013-10-12 17:38:00,
2013-10-12 12:39:00,67.2,60.8,29.97,SW,218,6.0,16.0,80,0.00,,,0.01,276,Wunderground v.1.15,2013-10-12 17:39:00,
2013-10-12 12:40:00,67.2,60.8,29.97,South,179,4.0,8.0,80,0.00,,,0.01,236,Wunderground v.1.15,2013-10-12 17:40:00,
2013-10-12 12:42:00,67.4,61.0,29.97,South,191,9.0,14.0,80,0.00,,,0.01,294,Wunderground v.1.15,2013-10-12 17:42:00,
2013-10-12 12:43:00,67.4,60.7,29.97,South,174,7.0,14.0,79,0.00,,,0.01,374,Wunderground v.1.15,2013-10-12 17:43:00,
2013-10-12 12:44:00,67.5,61.1,29.97,South,184,7.0,16.0,80,0.00,,,0.01,308,Wunderground v.1.15,2013-10-12 17:44:00,
2013-10-12 12:45:00,67.5,60.8,29.97,SSW,205,12.0,16.0,79,0.00,,,0.01,276,Wunderground v.1.15,2013-10-12 17:45:00,
2013-10-12 12:46:00,67.6,60.9,29.96,SW,236,13.0,16.0,79,0.00,,,0.01,276,Wunderground v.1.15,2013-10-12 17:46:00,
2013-10-12 12:48:00,67.6,60.9,29.96,SW,224,13.0,18.0,79,0.00,,,0.01,274,Wunderground v.1.15,2013-10-12 17:48:00,
2013-10-12 12:49:00,67.5,60.4,29.96,SW,217,13.0,18.0,78,0.00,,,0.01,283,Wunderground v.1.15,2013-10-12 17:49:00,
2013-10-12 12:50:00,67.5,60.4,29.96,SSE,167,11.0,13.0,78,0.00,,,0.01,278,Wunderground v.1.15,2013-10-12 17:50:00,
2013-10-12 12:51:00,67.5,60.4,29.96,South,180,13.0,13.0,78,0.00,,,0.01,278,Wunderground v.1.15,2013-10-12 17:51:00,
2013-10-12 12:54:00,67.4,59.9,29.96,South,170,8.0,18.0,77,0.00,,,0.01,267,Wunderground v.1.15,2013-10-12 17:54:00,
2013-10-12 12:55:00,67.5,60.4,29.96,South,183,15.0,18.0,78,0.00,,,0.01,230,Wunderground v.1.15,2013-10-12 17:55:00,
2013-10-12 12:56:00,67.4,59.9,29.96,SSW,207,7.0,18.0,77,0.00,,,0.01,200,Wunderground v.1.15,2013-10-12 17:56:00,
2013-10-12 12:59:00,67.4,60.3,29.96,SSW,211,9.0,18.0,78,0.00,,,0.01,294,Wunderground v.1.15,2013-10-12 17:59:00,
2013-10-12 13:00:00,67.4,60.3,29.96,SW,236,14.0,19.0,78,0.00,,,0.01,712,Wunderground v.1.15,2013-10-12 18:00:00,
2013-10-12 13:01:00,67.5,60.4,29.96,SSE,167,11.0,19.0,78,0.00,,,0.01,710,Wunderground v.1.15,2013-10-12 18:01:00,
2013-10-12 13:02:00,67.5,60.4,29.96,SW,215,12.0,19.0,78,0.00,,,0.01,710,Wunderground v.1.15,2013-10-12 18:02:00,
2013-10-12 13:04:00,67.7,60.2,29.97,South,175,14.0,19.0,77,0.00,,,0.01,418,Wunderground v.1.15,2013-10-12 18:04:00,
2013-10-12 13:05:00,67.9,60.4,29.96,SSE,159,10.0,19.0,77,0.00,,,0.01,448,Wunderground v.1.15,2013-10-12 18:05:00,
2013-10-12 13:06:00,68.1,60.2,29.96,SSW,204,15.0,19.0,76,0.00,,,0.01,265,Wunderground v.1.15,2013-10-12 18:06:00,
2013-10-12 13:07:00,68.1,60.2,29.96,SSW,201,9.0,19.0,76,0.00,,,0.01,265,Wunderground v.1.15,2013-10-12 18:07:00,
2013-10-12 13:10:00,68.3,60.1,29.97,SSE,165,5.0,11.0,75,0.00,,,0.01,299,Wunderground v.1.15,2013-10-12 18:10:00,
2013-10-12 13:12:00,68.4,60.2,29.97,South,171,11.0,15.0,75,0.00,,,0.01,299,Wunderground v.1.15,2013-10-12 18:12:00,
2013-10-12 13:15:00,68.5,60.3,29.97,SSE,165,8.0,18.0,75,0.00,,,0.01,204,Wunderground v.1.15,2013-10-12 18:15:00,
2013-10-12 13:16:00,68.5,60.3,29.97,SSW,205,8.0,20.0,75,0.00,,,0.01,207,Wunderground v.1.15,2013-10-12 18:16:00,
2013-10-12 13:17:00,68.5,60.3,29.97,South,179,15.0,20.0,75,0.00,,,0.01,230,Wunderground v.1.15,2013-10-12 18:17:00,
2013-10-12 13:18:00,68.5,60.3,29.97,SSW,210,11.0,20.0,75,0.00,,,0.01,204,Wunderground v.1.15,2013-10-12 18:18:00,
2013-10-12 13:20:00,68.3,59.7,29.97,SW,215,7.0,14.0,74,0.00,,,0.01,232,Wunderground v.1.15,2013-10-12 18:20:00,
2013-10-12 13:22:00,68.2,59.6,29.97,SSW,207,12.0,14.0,74,0.00,,,0.01,223,Wunderground v.1.15,2013-10-12 18:22:00,
2013-10-12 13:23:00,68.2,59.6,29.97,SSW,202,6.0,17.0,74,0.00,,,0.01,202,Wunderground v.1.15,2013-10-12 18:23:00,
2013-10-12 13:25:00,68.0,59.8,29.97,South,187,16.0,18.0,75,0.00,,,0.01,183,Wunderground v.1.15,2013-10-12 18:25:00,
2013-10-12 13:26:00,68.0,59.8,29.97,SSW,196,16.0,18.0,75,0.00,,,0.01,183,Wunderground v.1.15,2013-10-12 18:26:00,
2013-10-12 13:27:00,68.0,59.8,29.97,South,175,10.0,18.0,75,0.00,,,0.01,211,Wunderground v.1.15,2013-10-12 18:27:00,
2013-10-12 13:29:00,67.9,59.7,29.97,SSW,206,13.0,18.0,75,0.00,,,0.01,171,Wunderground v.1.15,2013-10-12 18:29:00,
2013-10-12 13:31:00,67.9,59.3,29.97,SSW,207,15.0,19.0,74,0.00,,,0.01,148,Wunderground v.1.15,2013-10-12 18:31:00,
2013-10-12 13:32:00,67.8,58.8,29.97,SSW,195,7.0,19.0,73,0.00,,,0.01,202,Wunderground v.1.15,2013-10-12 18:32:00,
2013-10-12 13:34:00,67.7,59.1,29.97,SSW,192,9.0,19.0,74,0.00,,,0.01,214,Wunderground v.1.15,2013-10-12 18:34:00,
2013-10-12 13:36:00,67.8,59.2,29.96,SSW,210,6.0,19.0,74,0.00,,,0.01,183,Wunderground v.1.15,2013-10-12 18:36:00,
2013-10-12 13:37:00,67.8,59.2,29.97,SSW,207,7.0,19.0,74,0.00,,,0.01,176,Wunderground v.1.15,2013-10-12 18:37:00,
2013-10-12 13:38:00,67.8,59.2,29.97,South,181,4.0,19.0,74,0.00,,,0.01,220,Wunderground v.1.15,2013-10-12 18:38:00,
2013-10-12 13:39:00,67.8,59.2,29.97,SSW,198,9.0,9.0,74,0.00,,,0.01,236,Wunderground v.1.15,2013-10-12 18:39:00,
2013-10-12 13:40:00,67.8,59.2,29.97,SSW,200,11.0,11.0,74,0.00,,,0.01,236,Wunderground v.1.15,2013-10-12 18:40:00,
2013-10-12 13:41:00,67.9,58.9,29.96,SW,223,6.0,11.0,73,0.00,,,0.01,246,Wunderground v.1.15,2013-10-12 18:41:00,
2013-10-12 13:42:00,67.9,59.3,29.97,South,185,6.0,11.0,74,0.00,,,0.01,190,Wunderground v.1.15,2013-10-12 18:42:00,
2013-10-12 13:43:00,68.0,59.4,29.97,SW,220,6.0,11.0,74,0.00,,,0.01,174,Wunderground v.1.15,2013-10-12 18:43:00,
2013-10-12 13:45:00,68.0,58.6,29.97,SSW,209,6.0,16.0,72,0.00,,,0.01,142,Wunderground v.1.15,2013-10-12 18:45:00,
2013-10-12 13:46:00,68.0,57.8,29.97,SSW,205,13.0,18.0,70,0.00,,,0.01,211,Wunderground v.1.15,2013-10-12 18:46:00,
2013-10-12 13:47:00,68.1,57.9,29.97,SSW,194,6.0,18.0,70,0.00,,,0.01,220,Wunderground v.1.15,2013-10-12 18:47:00,
2013-10-12 13:49:00,68.1,57.9,29.96,SSW,192,6.0,18.0,70,0.00,,,0.01,232,Wunderground v.1.15,2013-10-12 18:49:00,
2013-10-12 13:50:00,68.1,57.9,29.97,SSW,194,6.0,8.0,70,0.00,,,0.01,283,Wunderground v.1.15,2013-10-12 18:50:00,
2013-10-12 13:51:00,68.2,57.6,29.97,South,190,12.0,18.0,69,0.00,,,0.01,403,Wunderground v.1.15,2013-10-12 18:51:00,
2013-10-12 13:52:00,68.2,57.6,29.97,South,188,13.0,18.0,69,0.00,,,0.01,403,Wunderground v.1.15,2013-10-12 18:52:00,
2013-10-12 13:54:00,68.3,57.7,29.97,SSW,210,12.0,18.0,69,0.00,,,0.01,466,Wunderground v.1.15,2013-10-12 18:54:00,
2013-10-12 13:55:00,68.5,57.9,29.97,SSW,196,14.0,19.0,69,0.00,,,0.01,501,Wunderground v.1.15,2013-10-12 18:55:00,
2013-10-12 13:56:00,68.7,57.3,29.97,South,169,10.0,21.0,67,0.00,,,0.01,501,Wunderground v.1.15,2013-10-12 18:56:00,
2013-10-12 13:57:00,68.8,57.4,29.97,South,174,10.0,21.0,67,0.00,,,0.01,854,Wunderground v.1.15,2013-10-12 18:57:00,
2013-10-12 13:59:00,69.5,58.1,29.97,South,175,15.0,22.0,67,0.00,,,0.01,770,Wunderground v.1.15,2013-10-12 18:59:00,
2013-10-12 14:01:00,69.9,57.6,29.96,SSE,166,10.0,24.0,65,0.00,,,0.01,714,Wunderground v.1.15,2013-10-12 19:01:00,
2013-10-12 14:02:00,69.9,57.2,29.96,SSW,193,14.0,24.0,64,0.00,,,0.01,714,Wunderground v.1.15,2013-10-12 19:02:00,
2013-10-12 14:05:00,70.0,57.3,29.96,SW,225,10.0,24.0,64,0.00,,,0.01,689,Wunderground v.1.15,2013-10-12 19:05:00,
2013-10-12 14:06:00,70.0,56.8,29.96,South,175,6.0,24.0,63,0.00,,,0.01,689,Wunderground v.1.15,2013-10-12 19:06:00,
2013-10-12 14:07:00,70.0,57.3,29.96,South,191,6.0,24.0,64,0.00,,,0.01,204,Wunderground v.1.15,2013-10-12 19:07:00,
2013-10-12 14:08:00,70.0,57.3,29.96,SSW,200,10.0,24.0,64,0.00,,,0.01,204,Wunderground v.1.15,2013-10-12 19:08:00,
2013-10-12 14:10:00,70.1,57.4,29.96,SSW,198,9.0,16.0,64,0.00,,,0.01,693,Wunderground v.1.15,2013-10-12 19:10:00,
2013-10-12 14:12:00,70.1,57.4,29.97,SSW,205,9.0,22.0,64,0.00,,,0.01,691,Wunderground v.1.15,2013-10-12 19:12:00,
2013-10-12 14:13:00,70.1,56.9,29.97,SW,216,16.0,22.0,63,0.00,,,0.01,691,Wunderground v.1.15,2013-10-12 19:13:00,
2013-10-12 14:15:00,69.9,54.9,29.97,SW,227,13.0,25.0,59,0.00,,,0.01,232,Wunderground v.1.15,2013-10-12 19:15:00,
2013-10-12 14:17:00,69.7,54.3,29.97,WSW,252,14.0,25.0,58,0.00,,,0.01,703,Wunderground v.1.15,2013-10-12 19:17:00,
2013-10-12 14:18:00,69.7,53.8,29.97,SW,224,18.0,25.0,57,0.00,,,0.01,663,Wunderground v.1.15,2013-10-12 19:18:00,
2013-10-12 14:19:00,69.7,53.8,29.97,SSW,211,11.0,25.0,57,0.00,,,0.01,663,Wunderground v.1.15,2013-10-12 19:19:00,
2013-10-12 14:21:00,69.8,53.9,29.97,SSW,209,15.0,16.0,57,0.00,,,0.01,591,Wunderground v.1.15,2013-10-12 19:21:00,
2013-10-12 14:22:00,69.8,53.4,29.97,SSW,210,16.0,17.0,56,0.00,,,0.01,578,Wunderground v.1.15,2013-10-12 19:22:00,
2013-10-12 14:23:00,69.8,53.4,29.97,SSW,199,16.0,17.0,56,0.00,,,0.01,578,Wunderground v.1.15,2013-10-12 19:23:00,
2013-10-12 14:24:00,69.9,53.0,29.97,SSW,200,17.0,20.0,55,0.00,,,0.01,575,Wunderground v.1.15,2013-10-12 19:24:00,
2013-10-12 14:27:00,69.7,52.3,29.97,SSW,204,15.0,20.0,54,0.00,,,0.01,568,Wunderground v.1.15,2013-10-12 19:27:00,
2013-10-12 14:28:00,69.7,52.3,29.97,SW,217,19.0,20.0,54,0.00,,,0.01,568,Wunderground v.1.15,2013-10-12 19:28:00,
2013-10-12 14:29:00,69.7,51.8,29.97,SW,215,12.0,23.0,53,0.00,,,0.01,563,Wunderground v.1.15,2013-10-12 19:29:00,
2013-10-12 14:32:00,69.5,51.6,29.97,SW,223,16.0,22.0,53,0.00,,,0.01,559,Wunderground v.1.15,2013-10-12 19:32:00,
2013-10-12 14:33:00,69.5,51.6,29.97,WSW,241,7.0,22.0,53,0.00,,,0.01,557,Wunderground v.1.15,2013-10-12 19:33:00,
2013-10-12 14:34:00,69.5,51.6,29.97,SSW,209,11.0,22.0,53,0.00,,,0.01,555,Wunderground v.1.15,2013-10-12 19:34:00,
2013-10-12 14:35:00,69.4,51.0,29.97,SSW,205,13.0,22.0,52,0.00,,,0.01,555,Wunderground v.1.15,2013-10-12 19:35:00,
2013-10-12 14:37:00,69.4,50.5,29.97,SW,225,14.0,22.0,51,0.00,,,0.01,552,Wunderground v.1.15,2013-10-12 19:37:00,
2013-10-12 14:38:00,69.3,50.4,29.97,SW,230,14.0,22.0,51,0.00,,,0.01,552,Wunderground v.1.15,2013-10-12 19:38:00,
2013-10-12 14:39:00,69.3,49.9,29.98,SW,232,19.0,22.0,50,0.00,,,0.01,550,Wunderground v.1.15,2013-10-12 19:39:00,
2013-10-12 14:40:00,69.2,49.8,29.98,SW,225,16.0,16.0,50,0.00,,,0.01,548,Wunderground v.1.15,2013-10-12 19:40:00,
2013-10-12 14:43:00,69.1,49.7,29.98,SW,230,14.0,20.0,50,0.00,,,0.01,541,Wunderground v.1.15,2013-10-12 19:43:00,
2013-10-12 14:44:00,69.1,50.2,29.98,SW,219,16.0,20.0,51,0.00,,,0.01,541,Wunderground v.1.15,2013-10-12 19:44:00,
2013-10-12 14:45:00,69.1,48.6,29.98,SW,219,9.0,20.0,48,0.00,,,0.01,540,Wunderground v.1.15,2013-10-12 19:45:00,
2013-10-12 14:48:00,69.1,49.1,29.98,South,183,8.0,21.0,49,0.00,,,0.01,531,Wunderground v.1.15,2013-10-12 19:48:00,
2013-10-12 14:49:00,69.2,49.2,29.98,South,183,15.0,21.0,49,0.00,,,0.01,531,Wunderground v.1.15,2013-10-12 19:49:00,
2013-10-12 14:50:00,69.2,49.8,29.98,WSW,241,15.0,18.0,50,0.00,,,0.01,524,Wunderground v.1.15,2013-10-12 19:50:00,
2013-10-12 14:51:00,69.2,49.8,29.98,SSW,199,9.0,18.0,50,0.00,,,0.01,524,Wunderground v.1.15,2013-10-12 19:51:00,
2013-10-12 14:54:00,69.2,49.2,29.98,SSW,196,12.0,22.0,49,0.00,,,0.01,524,Wunderground v.1.15,2013-10-12 19:54:00,
2013-10-12 14:56:00,69.2,49.8,29.98,SSW,212,13.0,22.0,50,0.00,,,0.01,517,Wunderground v.1.15,2013-10-12 19:56:00,
2013-10-12 14:59:00,68.9,49.5,29.98,SSW,202,11.0,23.0,50,0.00,,,0.01,512,Wunderground v.1.15,2013-10-12 19:59:00,
2013-10-12 15:01:00,68.7,48.8,29.99,SW,229,6.0,17.0,49,0.00,,,0.01,510,Wunderground v.1.15,2013-10-12 20:01:00,
2013-10-12 15:02:00,68.7,49.3,29.99,SW,219,9.0,17.0,50,0.00,,,0.01,506,Wunderground v.1.15,2013-10-12 20:02:00,
2013-10-12 15:04:00,68.6,48.7,29.99,SSW,209,8.0,18.0,49,0.00,,,0.01,499,Wunderground v.1.15,2013-10-12 20:04:00,
2013-10-12 15:05:00,68.6,48.7,29.99,SSW,197,6.0,18.0,49,0.00,,,0.01,499,Wunderground v.1.15,2013-10-12 20:05:00,
2013-10-12 15:06:00,68.7,49.3,29.99,South,178,8.0,18.0,50,0.00,,,0.01,494,Wunderground v.1.15,2013-10-12 20:06:00,
2013-10-12 15:07:00,68.8,48.9,29.99,SW,227,11.0,18.0,49,0.00,,,0.01,492,Wunderground v.1.15,2013-10-12 20:07:00,
2013-10-12 15:10:00,69.0,50.1,29.99,SSW,202,8.0,10.0,51,0.00,,,0.01,489,Wunderground v.1.15,2013-10-12 20:10:00,
2013-10-12 15:12:00,69.1,48.0,29.99,SW,217,8.0,18.0,47,0.00,,,0.01,483,Wunderground v.1.15,2013-10-12 20:12:00,
2013-10-12 15:13:00,69.2,48.1,30.00,SW,217,14.0,18.0,47,0.00,,,0.01,482,Wunderground v.1.15,2013-10-12 20:13:00,
2013-10-12 15:15:00,69.0,47.4,29.99,WSW,246,12.0,20.0,46,0.00,,,0.01,478,Wunderground v.1.15,2013-10-12 20:15:00,
2013-10-12 15:16:00,69.0,47.9,29.99,WSW,244,15.0,20.0,47,0.00,,,0.01,475,Wunderground v.1.15,2013-10-12 20:16:00,
2013-10-12 15:17:00,68.9,47.8,29.99,SSW,203,11.0,20.0,47,0.00,,,0.01,475,Wunderground v.1.15,2013-10-12 20:17:00,
2013-10-12 15:18:00,68.8,46.6,29.99,WSW,248,10.0,21.0,45,0.00,,,0.01,471,Wunderground v.1.15,2013-10-12 20:18:00,
2013-10-12 15:21:00,68.6,47.0,30.00,SW,227,15.0,20.0,46,0.00,,,0.01,466,Wunderground v.1.15,2013-10-12 20:21:00,
2013-10-12 15:22:00,68.5,46.9,30.00,WSW,238,16.0,24.0,46,0.00,,,0.01,464,Wunderground v.1.15,2013-10-12 20:22:00,
2013-10-12 15:24:00,68.3,47.3,30.00,SW,228,12.0,24.0,47,0.00,,,0.01,461,Wunderground v.1.15,2013-10-12 20:24:00,
2013-10-12 15:26:00,68.2,47.2,30.00,SSW,205,9.0,24.0,47,0.00,,,0.01,455,Wunderground v.1.15,2013-10-12 20:26:00,
2013-10-12 15:27:00,68.2,46.6,30.00,SW,233,15.0,24.0,46,0.00,,,0.01,454,Wunderground v.1.15,2013-10-12 20:27:00,
2013-10-12 15:29:00,68.2,47.2,30.00,SSW,212,12.0,24.0,47,0.00,,,0.01,446,Wunderground v.1.15,2013-10-12 20:29:00,
2013-10-12 15:31:00,68.2,46.6,30.00,SW,223,7.0,19.0,46,0.00,,,0.01,441,Wunderground v.1.15,2013-10-12 20:31:00,
2013-10-12 15:32:00,68.2,47.2,30.00,WSW,238,16.0,19.0,47,0.00,,,0.01,438,Wunderground v.1.15,2013-10-12 20:32:00,
2013-10-12 15:33:00,68.3,46.7,30.00,SSW,213,16.0,19.0,46,0.00,,,0.01,438,Wunderground v.1.15,2013-10-12 20:33:00,
2013-10-12 15:34:00,68.2,46.6,30.00,SSW,208,13.0,19.0,46,0.00,,,0.01,434,Wunderground v.1.15,2013-10-12 20:34:00,
2013-10-12 15:36:00,68.1,46.5,30.00,SW,217,14.0,19.0,46,0.00,,,0.01,431,Wunderground v.1.15,2013-10-12 20:36:00,
2013-10-12 15:37:00,68.1,46.5,30.00,SW,222,14.0,19.0,46,0.00,,,0.01,425,Wunderground v.1.15,2013-10-12 20:37:00,
2013-10-12 15:38:00,68.1,45.9,30.00,SW,223,11.0,19.0,45,0.00,,,0.01,425,Wunderground v.1.15,2013-10-12 20:38:00,
2013-10-12 15:40:00,68.1,45.9,30.01,WSW,245,11.0,17.0,45,0.00,,,0.01,422,Wunderground v.1.15,2013-10-12 20:40:00,
2013-10-12 15:41:00,68.0,45.9,30.01,SW,215,10.0,17.0,45,0.00,,,0.01,418,Wunderground v.1.15,2013-10-12 20:41:00,
2013-10-12 15:42:00,68.0,46.4,30.01,SW,225,15.0,20.0,46,0.00,,,0.01,411,Wunderground v.1.15,2013-10-12 20:42:00,
2013-10-12 15:43:00,68.0,46.4,30.01,SW,219,10.0,20.0,46,0.00,,,0.01,411,Wunderground v.1.15,2013-10-12 20:43:00,
2013-10-12 15:46:00,67.9,46.3,30.01,SSW,213,11.0,20.0,46,0.00,,,0.01,404,Wunderground v.1.15,2013-10-12 20:46:00,
2013-10-12 15:48:00,67.8,45.7,30.01,SSW,206,9.0,22.0,45,0.00,,,0.01,399,Wunderground v.1.15,2013-10-12 20:48:00,
2013-10-12 15:49:00,67.7,46.2,30.01,SW,221,10.0,22.0,46,0.00,,,0.01,399,Wunderground v.1.15,2013-10-12 20:49:00,
2013-10-12 15:51:00,67.7,46.7,30.01,SW,236,13.0,18.0,47,0.00,,,0.01,392,Wunderground v.1.15,2013-10-12 20:51:00,
2013-10-12 15:52:00,67.7,47.3,30.01,SW,229,11.0,18.0,48,0.00,,,0.01,390,Wunderground v.1.15,2013-10-12 20:52:00,
2013-10-12 15:53:00,67.7,46.7,30.01,SW,227,13.0,18.0,47,0.00,,,0.01,388,Wunderground v.1.15,2013-10-12 20:53:00,
2013-10-12 15:54:00,67.7,46.7,30.01,SW,218,10.0,18.0,47,0.00,,,0.01,385,Wunderground v.1.15,2013-10-12 20:54:00,
2013-10-12 15:56:00,67.7,46.7,30.01,SW,222,12.0,18.0,47,0.00,,,0.01,378,Wunderground v.1.15,2013-10-12 20:56:00,
2013-10-12 15:57:00,67.7,46.2,30.01,SW,227,13.0,18.0,46,0.00,,,0.01,373,Wunderground v.1.15,2013-10-12 20:57:00,
2013-10-12 15:58:00,67.6,46.1,30.01,WSW,251,13.0,19.0,46,0.00,,,0.01,369,Wunderground v.1.15,2013-10-12 20:58:00,
2013-10-12 15:59:00,67.6,46.1,30.01,WSW,243,12.0,19.0,46,0.00,,,0.01,367,Wunderground v.1.15,2013-10-12 20:59:00,
2013-10-12 16:02:00,67.5,46.6,30.01,SW,217,6.0,14.0,47,0.00,,,0.01,360,Wunderground v.1.15,2013-10-12 21:02:00,
2013-10-12 16:03:00,67.4,46.5,30.01,SW,217,13.0,14.0,47,0.00,,,0.01,357,Wunderground v.1.15,2013-10-12 21:03:00,
2013-10-12 16:04:00,67.4,47.0,30.01,WSW,242,13.0,18.0,48,0.00,,,0.01,355,Wunderground v.1.15,2013-10-12 21:04:00,
2013-10-12 16:07:00,67.2,46.8,30.02,SW,214,7.0,19.0,48,0.00,,,0.01,346,Wunderground v.1.15,2013-10-12 21:07:00,
2013-10-12 16:08:00,67.2,46.3,30.02,SSW,201,9.0,19.0,47,0.00,,,0.01,345,Wunderground v.1.15,2013-10-12 21:08:00,
2013-10-12 16:09:00,67.1,46.2,30.02,WSW,245,15.0,19.0,47,0.00,,,0.01,343,Wunderground v.1.15,2013-10-12 21:09:00,
2013-10-12 16:10:00,67.1,46.2,30.02,SW,228,14.0,14.0,47,0.00,,,0.01,341,Wunderground v.1.15,2013-10-12 21:10:00,
2013-10-12 16:13:00,67.0,46.7,30.02,SSW,203,10.0,14.0,48,0.00,,,0.01,332,Wunderground v.1.15,2013-10-12 21:13:00,
2013-10-12 16:14:00,67.0,46.1,30.02,SW,234,16.0,16.0,47,0.00,,,0.01,327,Wunderground v.1.15,2013-10-12 21:14:00,
2013-10-12 16:15:00,67.0,46.1,30.02,SW,232,13.0,16.0,47,0.00,,,0.01,325,Wunderground v.1.15,2013-10-12 21:15:00,
2013-10-12 16:18:00,66.8,45.9,30.02,SW,219,13.0,19.0,47,0.00,,,0.01,318,Wunderground v.1.15,2013-10-12 21:18:00,
2013-10-12 16:19:00,66.7,45.3,30.02,SW,218,13.0,19.0,46,0.00,,,0.01,313,Wunderground v.1.15,2013-10-12 21:19:00,
2013-10-12 16:20:00,66.7,45.8,30.02,SSW,203,12.0,17.0,47,0.00,,,0.01,309,Wunderground v.1.15,2013-10-12 21:20:00,
2013-10-12 16:23:00,66.5,46.2,30.02,West,261,3.0,20.0,48,0.00,,,0.01,302,Wunderground v.1.15,2013-10-12 21:23:00,
2013-10-12 16:25:00,66.5,45.6,30.02,WSW,248,12.0,20.0,47,0.00,,,0.01,297,Wunderground v.1.15,2013-10-12 21:25:00,
2013-10-12 16:26:00,66.5,45.6,30.02,WSW,254,13.0,20.0,47,0.00,,,0.01,295,Wunderground v.1.15,2013-10-12 21:26:00,
2013-10-12 16:28:00,66.4,45.5,30.02,SW,230,21.0,24.0,47,0.00,,,0.01,288,Wunderground v.1.15,2013-10-12 21:28:00,
2013-10-12 16:30:00,66.3,45.5,30.02,WSW,258,18.0,18.0,47,0.00,,,0.01,283,Wunderground v.1.15,2013-10-12 21:30:00,
2013-10-12 16:31:00,66.3,45.5,30.03,SW,234,15.0,19.0,47,0.00,,,0.01,281,Wunderground v.1.15,2013-10-12 21:31:00,
2013-10-12 16:33:00,66.1,45.3,30.02,SW,235,11.0,19.0,47,0.00,,,0.01,274,Wunderground v.1.15,2013-10-12 21:33:00,
2013-10-12 16:35:00,66.1,45.8,30.03,SW,221,11.0,22.0,48,0.00,,,0.01,269,Wunderground v.1.15,2013-10-12 21:35:00,
2013-10-12 16:36:00,66.1,45.3,30.03,SW,214,10.0,22.0,47,0.00,,,0.01,267,Wunderground v.1.15,2013-10-12 21:36:00,
2013-10-12 16:38:00,66.0,45.2,30.03,WSW,238,11.0,22.0,47,0.00,,,0.01,258,Wunderground v.1.15,2013-10-12 21:38:00,
2013-10-12 16:40:00,66.0,45.7,30.03,SW,215,12.0,14.0,48,0.00,,,0.01,253,Wunderground v.1.15,2013-10-12 21:40:00,
2013-10-12 16:41:00,66.0,45.2,30.03,WSW,243,10.0,14.0,47,0.00,,,0.01,251,Wunderground v.1.15,2013-10-12 21:41:00,
2013-10-12 16:43:00,66.0,45.2,30.03,SW,215,11.0,18.0,47,0.00,,,0.01,243,Wunderground v.1.15,2013-10-12 21:43:00,
2013-10-12 16:45:00,66.0,45.7,30.04,WSW,246,5.0,18.0,48,0.00,,,0.01,237,Wunderground v.1.15,2013-10-12 21:45:00,
2013-10-12 16:46:00,66.0,45.7,30.04,SW,235,6.0,18.0,48,0.00,,,0.01,236,Wunderground v.1.15,2013-10-12 21:46:00,
2013-10-12 16:47:00,65.9,45.6,30.04,SW,221,12.0,18.0,48,0.00,,,0.01,230,Wunderground v.1.15,2013-10-12 21:47:00,
2013-10-12 16:49:00,65.9,45.6,30.04,WSW,237,12.0,18.0,48,0.00,,,0.01,227,Wunderground v.1.15,2013-10-12 21:49:00,
2013-10-12 16:50:00,65.9,45.6,30.04,SW,223,6.0,9.0,48,0.00,,,0.01,221,Wunderground v.1.15,2013-10-12 21:50:00,
2013-10-12 16:51:00,65.9,46.2,30.04,NW,313,5.0,10.0,49,0.00,,,0.01,218,Wunderground v.1.15,2013-10-12 21:51:00,
2013-10-12 16:52:00,65.8,45.6,30.04,SW,225,15.0,15.0,48,0.00,,,0.01,216,Wunderground v.1.15,2013-10-12 21:52:00,
2013-10-12 16:54:00,65.7,45.5,30.04,WSW,240,13.0,18.0,48,0.00,,,0.01,209,Wunderground v.1.15,2013-10-12 21:54:00,
2013-10-12 16:55:00,65.7,45.5,30.04,SW,223,16.0,18.0,48,0.00,,,0.01,202,Wunderground v.1.15,2013-10-12 21:55:00,
2013-10-12 16:56:00,65.6,45.4,30.04,SW,232,13.0,21.0,48,0.00,,,0.01,199,Wunderground v.1.15,2013-10-12 21:56:00,
2013-10-12 16:57:00,65.6,45.4,30.04,WSW,247,6.0,21.0,48,0.00,,,0.01,197,Wunderground v.1.15,2013-10-12 21:57:00,
2013-10-12 16:58:00,65.5,45.3,30.04,SW,228,13.0,21.0,48,0.00,,,0.01,193,Wunderground v.1.15,2013-10-12 21:58:00,
2013-10-12 17:00:00,65.4,45.2,30.04,SSW,209,11.0,11.0,48,0.00,,,0.01,188,Wunderground v.1.15,2013-10-12 22:00:00,
2013-10-12 17:01:00,65.4,45.2,30.04,SW,228,12.0,18.0,48,0.00,,,0.01,185,Wunderground v.1.15,2013-10-12 22:01:00,
2013-10-12 17:02:00,65.3,45.6,30.04,SW,215,10.0,18.0,49,0.00,,,0.01,178,Wunderground v.1.15,2013-10-12 22:02:00,
2013-10-12 17:03:00,65.3,45.6,30.04,SSW,213,9.0,18.0,49,0.00,,,0.01,174,Wunderground v.1.15,2013-10-12 22:03:00,
2013-10-12 17:05:00,65.2,45.5,30.05,SSW,213,8.0,18.0,49,0.00,,,0.01,167,Wunderground v.1.15,2013-10-12 22:05:00,
2013-10-12 17:06:00,65.2,45.5,30.05,WSW,250,11.0,18.0,49,0.00,,,0.01,162,Wunderground v.1.15,2013-10-12 22:06:00,
2013-10-12 17:07:00,65.1,45.5,30.05,SSW,211,8.0,18.0,49,0.00,,,0.01,158,Wunderground v.1.15,2013-10-12 22:07:00,
2013-10-12 17:08:00,65.1,45.5,30.05,WSW,238,11.0,18.0,49,0.00,,,0.01,155,Wunderground v.1.15,2013-10-12 22:08:00,
2013-10-12 17:09:00,65.1,45.5,30.05,SW,227,12.0,18.0,49,0.00,,,0.01,151,Wunderground v.1.15,2013-10-12 22:09:00,
2013-10-12 17:10:00,65.1,46.0,30.05,WSW,238,6.0,10.0,50,0.00,,,0.01,149,Wunderground v.1.15,2013-10-12 22:10:00,
2013-10-12 17:11:00,65.1,46.0,30.05,SW,232,14.0,14.0,50,0.00,,,0.01,146,Wunderground v.1.15,2013-10-12 22:11:00,
2013-10-12 17:12:00,65.0,45.4,30.05,WSW,240,7.0,15.0,49,0.00,,,0.01,141,Wunderground v.1.15,2013-10-12 22:12:00,
2013-10-12 17:13:00,65.0,45.4,30.05,SW,227,14.0,17.0,49,0.00,,,0.01,139,Wunderground v.1.15,2013-10-12 22:13:00,
2013-10-12 17:14:00,64.9,45.8,30.05,SSW,205,10.0,17.0,50,0.00,,,0.01,135,Wunderground v.1.15,2013-10-12 22:14:00,
2013-10-12 17:16:00,64.9,45.8,30.05,SSW,195,9.0,17.0,50,0.00,,,0.01,128,Wunderground v.1.15,2013-10-12 22:16:00,
2013-10-12 17:17:00,64.9,45.8,30.05,SW,226,6.0,17.0,50,0.00,,,0.01,127,Wunderground v.1.15,2013-10-12 22:17:00,
2013-10-12 17:18:00,64.9,45.8,30.05,West,267,8.0,17.0,50,0.00,,,0.01,123,Wunderground v.1.15,2013-10-12 22:18:00,
2013-10-12 17:21:00,64.8,45.7,30.05,SW,223,7.0,9.0,50,0.00,,,0.01,111,Wunderground v.1.15,2013-10-12 22:21:00,
2013-10-12 17:22:00,64.8,45.7,30.05,SSW,194,10.0,11.0,50,0.00,,,0.01,109,Wunderground v.1.15,2013-10-12 22:22:00,
2013-10-12 17:24:00,64.7,45.1,30.05,SW,227,12.0,14.0,49,0.00,,,0.01,102,Wunderground v.1.15,2013-10-12 22:24:00,
2013-10-12 17:26:00,64.6,45.0,30.06,WSW,255,10.0,19.0,49,0.00,,,0.01,95,Wunderground v.1.15,2013-10-12 22:26:00,
2013-10-12 17:27:00,64.5,44.9,30.06,SW,232,18.0,21.0,49,0.00,,,0.01,91,Wunderground v.1.15,2013-10-12 22:27:00,
2013-10-12 17:29:00,64.4,44.8,30.06,SW,232,13.0,21.0,49,0.00,,,0.01,84,Wunderground v.1.15,2013-10-12 22:29:00,
2013-10-12 17:31:00,64.3,44.7,30.06,SW,234,7.0,15.0,49,0.00,,,0.01,79,Wunderground v.1.15,2013-10-12 22:31:00,
2013-10-12 17:32:00,64.3,44.7,30.06,WSW,249,15.0,19.0,49,0.00,,,0.01,76,Wunderground v.1.15,2013-10-12 22:32:00,
2013-10-12 17:33:00,64.3,44.7,30.06,WSW,248,8.0,19.0,49,0.00,,,0.01,74,Wunderground v.1.15,2013-10-12 22:33:00,
2013-10-12 17:34:00,64.2,44.6,30.06,SW,229,6.0,19.0,49,0.00,,,0.01,70,Wunderground v.1.15,2013-10-12 22:34:00,
2013-10-12 17:35:00,64.1,45.6,30.06,WSW,242,3.0,19.0,51,0.00,,,0.01,69,Wunderground v.1.15,2013-10-12 22:35:00,
2013-10-12 17:36:00,64.1,45.6,30.06,West,267,6.0,19.0,51,0.00,,,0.01,63,Wunderground v.1.15,2013-10-12 22:36:00,
2013-10-12 17:37:00,64.0,45.0,30.06,SW,223,7.0,19.0,50,0.00,,,0.01,62,Wunderground v.1.15,2013-10-12 22:37:00,
2013-10-12 17:38:00,64.0,45.5,30.06,WSW,240,8.0,19.0,51,0.00,,,0.01,60,Wunderground v.1.15,2013-10-12 22:38:00,
2013-10-12 17:39:00,63.9,45.4,30.06,SW,232,11.0,19.0,51,0.00,,,0.01,58,Wunderground v.1.15,2013-10-12 22:39:00,
2013-10-12 17:41:00,63.9,45.4,30.06,SW,223,6.0,12.0,51,0.00,,,0.01,53,Wunderground v.1.15,2013-10-12 22:41:00,
2013-10-12 17:43:00,63.8,45.8,30.06,WSW,239,7.0,12.0,52,0.00,,,0.01,47,Wunderground v.1.15,2013-10-12 22:43:00,
2013-10-12 17:44:00,63.7,45.7,30.06,WSW,241,12.0,12.0,52,0.00,,,0.01,44,Wunderground v.1.15,2013-10-12 22:44:00,
2013-10-12 17:46:00,63.4,44.9,30.06,SSW,203,8.0,16.0,51,0.00,,,0.01,39,Wunderground v.1.15,2013-10-12 22:46:00,
2013-10-12 17:47:00,63.3,44.9,30.06,SW,225,10.0,16.0,51,0.00,,,0.01,39,Wunderground v.1.15,2013-10-12 22:47:00,
2013-10-12 17:48:00,63.3,44.9,30.07,WSW,244,4.0,16.0,51,0.00,,,0.01,39,Wunderground v.1.15,2013-10-12 22:48:00,
2013-10-12 17:49:00,63.2,44.2,30.07,SW,227,6.0,16.0,50,0.00,,,0.01,37,Wunderground v.1.15,2013-10-12 22:49:00,
2013-10-12 17:50:00,63.1,44.7,30.07,WSW,244,8.0,11.0,51,0.00,,,0.01,33,Wunderground v.1.15,2013-10-12 22:50:00,
2013-10-12 17:51:00,63.0,44.6,30.07,SW,232,6.0,11.0,51,0.00,,,0.01,30,Wunderground v.1.15,2013-10-12 22:51:00,
2013-10-12 17:52:00,62.9,44.5,30.07,SW,228,11.0,12.0,51,0.00,,,0.01,30,Wunderground v.1.15,2013-10-12 22:52:00,
2013-10-12 17:53:00,62.9,44.5,30.07,SW,233,11.0,15.0,51,0.00,,,0.01,28,Wunderground v.1.15,2013-10-12 22:53:00,
2013-10-12 17:54:00,62.8,44.4,30.07,SW,229,12.0,15.0,51,0.00,,,0.01,26,Wunderground v.1.15,2013-10-12 22:54:00,
2013-10-12 17:55:00,62.7,44.3,30.07,SW,232,5.0,15.0,51,0.00,,,0.01,25,Wunderground v.1.15,2013-10-12 22:55:00,
2013-10-12 17:57:00,62.6,44.2,30.07,SW,220,4.0,15.0,51,0.00,,,0.01,23,Wunderground v.1.15,2013-10-12 22:57:00,
2013-10-12 17:58:00,62.5,44.6,30.07,SW,225,6.0,15.0,52,0.00,,,0.01,21,Wunderground v.1.15,2013-10-12 22:58:00,
2013-10-12 18:00:00,62.4,44.5,30.07,SW,234,10.0,10.0,52,0.00,,,0.01,19,Wunderground v.1.15,2013-10-12 23:00:00,
2013-10-12 18:02:00,62.2,44.3,30.08,WSW,244,6.0,17.0,52,0.00,,,0.01,16,Wunderground v.1.15,2013-10-12 23:02:00,
2013-10-12 18:03:00,62.2,44.3,30.08,WSW,245,11.0,17.0,52,0.00,,,0.01,16,Wunderground v.1.15,2013-10-12 23:03:00,
2013-10-12 18:05:00,62.0,44.2,30.08,SW,220,11.0,17.0,52,0.00,,,0.01,14,Wunderground v.1.15,2013-10-12 23:05:00,
2013-10-12 18:07:00,61.9,44.1,30.08,WSW,239,11.0,17.0,52,0.00,,,0.01,12,Wunderground v.1.15,2013-10-12 23:07:00,
2013-10-12 18:08:00,61.9,44.1,30.08,SW,220,6.0,19.0,52,0.00,,,0.01,11,Wunderground v.1.15,2013-10-12 23:08:00,
2013-10-12 18:10:00,61.8,44.0,30.08,SSW,206,8.0,13.0,52,0.00,,,0.01,11,Wunderground v.1.15,2013-10-12 23:10:00,
2013-10-12 18:11:00,61.8,44.0,30.08,SW,236,7.0,13.0,52,0.00,,,0.01,9,Wunderground v.1.15,2013-10-12 23:11:00,
2013-10-12 18:12:00,61.7,44.4,30.08,SW,234,7.0,14.0,53,0.00,,,0.01,9,Wunderground v.1.15,2013-10-12 23:12:00,
2013-10-12 18:13:00,61.6,44.3,30.08,WSW,243,11.0,14.0,53,0.00,,,0.01,9,Wunderground v.1.15,2013-10-12 23:13:00,
2013-10-12 18:15:00,61.4,44.1,30.08,SW,232,12.0,14.0,53,0.00,,,0.01,5,Wunderground v.1.15,2013-10-12 23:15:00,
2013-10-12 18:16:00,61.4,44.1,30.08,SW,236,12.0,14.0,53,0.00,,,0.01,5,Wunderground v.1.15,2013-10-12 23:16:00,
2013-10-12 18:17:00,61.3,44.0,30.08,SW,220,10.0,17.0,53,0.00,,,0.01,5,Wunderground v.1.15,2013-10-12 23:17:00,
2013-10-12 18:18:00,61.3,44.0,30.08,SW,235,19.0,19.0,53,0.00,,,0.01,5,Wunderground v.1.15,2013-10-12 23:18:00,
2013-10-12 18:19:00,61.2,43.9,30.08,SSW,207,13.0,19.0,53,0.00,,,0.01,5,Wunderground v.1.15,2013-10-12 23:19:00,
2013-10-12 18:21:00,61.1,43.8,30.09,SW,222,5.0,16.0,53,0.00,,,0.01,0,Wunderground v.1.15,2013-10-12 23:21:00,
2013-10-12 18:23:00,61.0,43.7,30.09,SW,219,9.0,16.0,53,0.00,,,0.01,0,Wunderground v.1.15,2013-10-12 23:23:00,
2013-10-12 18:25:00,60.9,43.6,30.09,SW,223,6.0,16.0,53,0.00,,,0.01,0,Wunderground v.1.15,2013-10-12 23:25:00,
2013-10-12 18:26:00,60.8,43.6,30.09,SW,232,8.0,16.0,53,0.00,,,0.01,0,Wunderground v.1.15,2013-10-12 23:26:00,
2013-10-12 18:27:00,60.7,43.5,30.09,WSW,242,7.0,16.0,53,0.00,,,0.01,0,Wunderground v.1.15,2013-10-12 23:27:00,
2013-10-12 18:28:00,60.7,43.5,30.09,SW,230,13.0,16.0,53,0.00,,,0.01,0,Wunderground v.1.15,2013-10-12 23:28:00,
2013-10-12 18:30:00,60.6,43.4,30.09,WSW,240,7.0,10.0,53,0.00,,,0.01,0,Wunderground v.1.15,2013-10-12 23:30:00,
2013-10-12 18:31:00,60.5,43.3,30.09,SW,228,11.0,13.0,53,0.00,,,0.01,0,Wunderground v.1.15,2013-10-12 23:31:00,
2013-10-12 18:32:00,60.5,43.3,30.09,SW,227,11.0,18.0,53,0.00,,,0.01,0,Wunderground v.1.15,2013-10-12 23:32:00,
2013-10-12 18:33:00,60.5,43.3,30.09,West,269,6.0,18.0,53,0.00,,,0.01,0,Wunderground v.1.15,2013-10-12 23:33:00,
2013-10-12 18:34:00,60.5,43.3,30.09,SW,234,11.0,18.0,53,0.00,,,0.01,0,Wunderground v.1.15,2013-10-12 23:34:00,
2013-10-12 18:35:00,60.4,43.2,30.09,SW,223,7.0,18.0,53,0.00,,,0.01,0,Wunderground v.1.15,2013-10-12 23:35:00,
2013-10-12 18:36:00,60.4,43.2,30.10,SW,227,6.0,18.0,53,0.00,,,0.01,0,Wunderground v.1.15,2013-10-12 23:36:00,
2013-10-12 18:37:00,60.3,43.1,30.10,SW,227,8.0,18.0,53,0.00,,,0.01,0,Wunderground v.1.15,2013-10-12 23:37:00,
2013-10-12 18:38:00,60.2,43.0,30.09,SW,232,11.0,18.0,53,0.00,,,0.01,0,Wunderground v.1.15,2013-10-12 23:38:00,
2013-10-12 18:39:00,60.2,43.0,30.09,SSW,212,11.0,18.0,53,0.00,,,0.01,0,Wunderground v.1.15,2013-10-12 23:39:00,
2013-10-12 18:40:00,60.1,42.9,30.10,SW,220,7.0,13.0,53,0.00,,,0.01,0,Wunderground v.1.15,2013-10-12 23:40:00,
2013-10-12 18:41:00,60.0,42.8,30.10,SW,227,12.0,17.0,53,0.00,,,0.01,0,Wunderground v.1.15,2013-10-12 23:41:00,
2013-10-12 18:42:00,60.0,42.8,30.10,SW,227,6.0,17.0,53,0.00,,,0.01,0,Wunderground v.1.15,2013-10-12 23:42:00,
2013-10-12 18:43:00,60.0,42.8,30.10,WSW,240,12.0,17.0,53,0.00,,,0.01,0,Wunderground v.1.15,2013-10-12 23:43:00,
2013-10-12 18:44:00,60.0,42.8,30.10,SW,226,10.0,17.0,53,0.00,,,0.01,0,Wunderground v.1.15,2013-10-12 23:44:00,
2013-10-12 18:45:00,59.9,43.2,30.10,SW,230,13.0,17.0,54,0.00,,,0.01,0,Wunderground v.1.15,2013-10-12 23:45:00,
2013-10-12 18:46:00,59.9,42.7,30.10,SW,234,5.0,17.0,53,0.00,,,0.01,0,Wunderground v.1.15,2013-10-12 23:46:00,
2013-10-12 18:47:00,59.9,43.2,30.10,SW,223,10.0,17.0,54,0.00,,,0.01,0,Wunderground v.1.15,2013-10-12 23:47:00,
2013-10-12 18:48:00,59.8,43.1,30.10,West,263,7.0,17.0,54,0.00,,,0.01,0,Wunderground v.1.15,2013-10-12 23:48:00,
2013-10-12 18:49:00,59.7,43.0,30.10,SW,216,7.0,17.0,54,0.00,,,0.01,0,Wunderground v.1.15,2013-10-12 23:49:00,
2013-10-12 18:50:00,59.7,43.0,30.10,WSW,240,10.0,11.0,54,0.00,,,0.01,0,Wunderground v.1.15,2013-10-12 23:50:00,
2013-10-12 18:51:00,59.6,42.9,30.10,WSW,242,12.0,13.0,54,0.00,,,0.01,0,Wunderground v.1.15,2013-10-12 23:51:00,
2013-10-12 18:52:00,59.6,42.9,30.11,SW,236,5.0,13.0,54,0.00,,,0.01,0,Wunderground v.1.15,2013-10-12 23:52:00,
2013-10-12 18:53:00,59.5,42.8,30.11,WSW,239,13.0,13.0,54,0.00,,,0.01,0,Wunderground v.1.15,2013-10-12 23:53:00,
2013-10-12 18:54:00,59.4,42.7,30.11,WSW,239,12.0,15.0,54,0.00,,,0.01,0,Wunderground v.1.15,2013-10-12 23:54:00,
2013-10-12 18:55:00,59.3,42.6,30.11,SW,222,10.0,15.0,54,0.00,,,0.01,0,Wunderground v.1.15,2013-10-12 23:55:00,
2013-10-12 18:57:00,59.3,43.1,30.11,SW,223,6.0,15.0,55,0.00,,,0.01,0,Wunderground v.1.15,2013-10-12 23:57:00,
2013-10-12 18:58:00,59.2,43.0,30.11,SW,226,6.0,15.0,55,0.00,,,0.01,0,Wunderground v.1.15,2013-10-12 23:58:00,
2013-10-12 18:59:00,59.1,42.9,30.11,SW,220,8.0,15.0,55,0.00,,,0.01,0,Wunderground v.1.15,2013-10-12 23:59:00,
2013-10-12 19:01:00,58.9,42.8,30.11,SW,225,6.0,14.0,55,0.00,,,0.01,0,Wunderground v.1.15,2013-10-13 00:01:00,
2013-10-12 19:02:00,58.9,43.2,30.11,SW,223,5.0,14.0,56,0.00,,,0.01,0,Wunderground v.1.15,2013-10-13 00:02:00,
2013-10-12 19:03:00,58.8,43.1,30.11,SW,227,6.0,14.0,56,0.00,,,0.01,0,Wunderground v.1.15,2013-10-13 00:03:00,
2013-10-12 19:05:00,58.7,43.0,30.11,SW,230,7.0,14.0,56,0.00,,,0.01,0,Wunderground v.1.15,2013-10-13 00:05:00,
2013-10-12 19:06:00,58.6,42.9,30.11,SW,226,6.0,14.0,56,0.00,,,0.01,0,Wunderground v.1.15,2013-10-13 00:06:00,
2013-10-12 19:07:00,58.6,42.9,30.11,SW,231,4.0,14.0,56,0.00,,,0.01,0,Wunderground v.1.15,2013-10-13 00:07:00,
2013-10-12 19:08:00,58.5,42.8,30.11,SW,223,10.0,14.0,56,0.00,,,0.01,0,Wunderground v.1.15,2013-10-13 00:08:00,
2013-10-12 19:10:00,58.3,42.7,30.11,SW,231,8.0,11.0,56,0.00,,,0.01,0,Wunderground v.1.15,2013-10-13 00:10:00,
2013-10-12 19:11:00,58.3,42.7,30.11,SW,225,7.0,11.0,56,0.00,,,0.01,0,Wunderground v.1.15,2013-10-13 00:11:00,
2013-10-12 19:12:00,58.2,42.6,30.11,SW,227,8.0,11.0,56,0.00,,,0.01,0,Wunderground v.1.15,2013-10-13 00:12:00,
2013-10-12 19:13:00,58.2,42.6,30.11,SW,235,4.0,11.0,56,0.00,,,0.01,0,Wunderground v.1.15,2013-10-13 00:13:00,
2013-10-12 19:15:00,58.1,42.9,30.11,WSW,237,6.0,11.0,57,0.00,,,0.01,0,Wunderground v.1.15,2013-10-13 00:15:00,
2013-10-12 19:16:00,58.0,42.8,30.12,SW,233,3.0,11.0,57,0.00,,,0.01,0,Wunderground v.1.15,2013-10-13 00:16:00,
2013-10-12 19:17:00,57.9,42.8,30.12,SW,223,8.0,11.0,57,0.00,,,0.01,0,Wunderground v.1.15,2013-10-13 00:17:00,
2013-10-12 19:18:00,57.8,42.7,30.12,SW,226,4.0,11.0,57,0.00,,,0.01,0,Wunderground v.1.15,2013-10-13 00:18:00,
2013-10-12 19:20:00,57.8,42.7,30.12,SW,231,4.0,6.0,57,0.00,,,0.01,0,Wunderground v.1.15,2013-10-13 00:20:00,
2013-10-12 19:21:00,57.7,42.6,30.12,SW,222,7.0,10.0,57,0.00,,,0.01,0,Wunderground v.1.15,2013-10-13 00:21:00,
2013-10-12 19:22:00,57.6,42.5,30.12,SW,234,6.0,10.0,57,0.00,,,0.01,0,Wunderground v.1.15,2013-10-13 00:22:00,
2013-10-12 19:23:00,57.6,42.5,30.12,SW,229,5.0,10.0,57,0.00,,,0.01,0,Wunderground v.1.15,2013-10-13 00:23:00,
2013-10-12 19:26:00,57.4,42.7,30.12,SW,232,6.0,10.0,58,0.00,,,0.01,0,Wunderground v.1.15,2013-10-13 00:26:00,
2013-10-12 19:27:00,57.3,42.6,30.12,SW,232,2.0,10.0,58,0.00,,,0.01,0,Wunderground v.1.15,2013-10-13 00:27:00,
2013-10-12 19:29:00,57.2,42.5,30.12,SW,233,4.0,10.0,58,0.00,,,0.01,0,Wunderground v.1.15,2013-10-13 00:29:00,
2013-10-12 19:31:00,57.0,42.8,30.12,SW,234,4.0,5.0,59,0.00,,,0.01,0,Wunderground v.1.15,2013-10-13 00:31:00,
2013-10-12 19:32:00,56.9,42.7,30.12,SW,233,5.0,5.0,59,0.00,,,0.01,0,Wunderground v.1.15,2013-10-13 00:32:00,
2013-10-12 19:33:00,56.9,42.7,30.12,SW,233,3.0,5.0,59,0.00,,,0.01,0,Wunderground v.1.15,2013-10-13 00:33:00,
2013-10-12 19:35:00,56.8,42.6,30.12,SW,232,4.0,7.0,59,0.00,,,0.01,0,Wunderground v.1.15,2013-10-13 00:35:00,
2013-10-12 19:36:00,56.7,42.5,30.13,SW,232,4.0,7.0,59,0.00,,,0.01,0,Wunderground v.1.15,2013-10-13 00:36:00,
2013-10-12 19:38:00,56.6,42.4,30.13,SW,232,3.0,7.0,59,0.00,,,0.01,0,Wunderground v.1.15,2013-10-13 00:38:00,
2013-10-12 19:40:00,56.5,42.8,30.13,WSW,238,2.0,6.0,60,0.00,,,0.01,0,Wunderground v.1.15,2013-10-13 00:40:00,
2013-10-12 19:43:00,56.4,42.7,30.13,SW,236,4.0,6.0,60,0.00,,,0.01,0,Wunderground v.1.15,2013-10-13 00:43:00,
2013-10-12 19:44:00,56.3,42.6,30.13,SW,236,4.0,6.0,60,0.00,,,0.01,0,Wunderground v.1.15,2013-10-13 00:44:00,
2013-10-12 19:45:00,56.2,42.5,30.13,SW,236,4.0,6.0,60,0.00,,,0.01,0,Wunderground v.1.15,2013-10-13 00:45:00,
2013-10-12 19:48:00,56.1,42.4,30.13,WSW,240,4.0,8.0,60,0.00,,,0.01,0,Wunderground v.1.15,2013-10-13 00:48:00,
2013-10-12 19:49:00,56.0,42.3,30.13,WSW,240,4.0,8.0,60,0.00,,,0.01,0,Wunderground v.1.15,2013-10-13 00:49:00,
2013-10-12 19:51:00,56.0,42.7,30.13,WSW,239,4.0,6.0,61,0.00,,,0.01,0,Wunderground v.1.15,2013-10-13 00:51:00,
2013-10-12 19:53:00,56.0,42.7,30.13,SW,232,5.0,6.0,61,0.00,,,0.01,0,Wunderground v.1.15,2013-10-13 00:53:00,
2013-10-12 19:54:00,56.0,42.7,30.13,SW,232,4.0,6.0,61,0.00,,,0.01,0,Wunderground v.1.15,2013-10-13 00:54:00,
2013-10-12 19:55:00,55.9,42.6,30.13,SW,233,4.0,6.0,61,0.00,,,0.01,0,Wunderground v.1.15,2013-10-13 00:55:00,
2013-10-12 19:56:00,55.9,42.6,30.13,SW,233,3.0,6.0,61,0.00,,,0.01,0,Wunderground v.1.15,2013-10-13 00:56:00,
2013-10-12 19:58:00,55.9,42.6,30.13,SW,232,2.0,6.0,61,0.00,,,0.01,0,Wunderground v.1.15,2013-10-13 00:58:00,
2013-10-12 19:59:00,55.9,42.6,30.13,SW,232,4.0,6.0,61,0.00,,,0.01,0,Wunderground v.1.15,2013-10-13 00:59:00,
2013-10-12 20:00:00,55.8,42.5,30.13,SW,232,3.0,4.0,61,0.00,,,0.01,0,Wunderground v.1.15,2013-10-13 01:00:00,
2013-10-12 20:02:00,55.8,42.5,30.13,SW,232,3.0,5.0,61,0.00,,,0.01,0,Wunderground v.1.15,2013-10-13 01:02:00,
2013-10-12 20:04:00,55.7,42.5,30.13,SW,232,2.0,5.0,61,0.00,,,0.01,0,Wunderground v.1.15,2013-10-13 01:04:00,
2013-10-12 20:05:00,55.7,42.5,30.13,SW,232,4.0,5.0,61,0.00,,,0.01,0,Wunderground v.1.15,2013-10-13 01:05:00,
2013-10-12 20:06:00,55.7,42.5,30.13,SW,232,4.0,5.0,61,0.00,,,0.01,0,Wunderground v.1.15,2013-10-13 01:06:00,
2013-10-12 20:07:00,55.6,42.4,30.13,SW,232,4.0,5.0,61,0.00,,,0.01,0,Wunderground v.1.15,2013-10-13 01:07:00,
2013-10-12 20:09:00,55.5,42.7,30.13,SW,232,2.0,5.0,62,0.00,,,0.01,0,Wunderground v.1.15,2013-10-13 01:09:00,
2013-10-12 20:11:00,55.4,42.6,30.13,SW,232,2.0,5.0,62,0.00,,,0.01,0,Wunderground v.1.15,2013-10-13 01:11:00,
2013-10-12 20:12:00,55.4,42.6,30.13,SW,232,5.0,5.0,62,0.00,,,0.01,0,Wunderground v.1.15,2013-10-13 01:12:00,
2013-10-12 20:14:00,55.3,42.5,30.13,SW,232,3.0,5.0,62,0.00,,,0.01,0,Wunderground v.1.15,2013-10-13 01:14:00,
2013-10-12 20:15:00,55.2,42.4,30.14,SW,221,3.0,7.0,62,0.00,,,0.01,0,Wunderground v.1.15,2013-10-13 01:15:00,
2013-10-12 20:17:00,55.1,42.3,30.14,SW,223,3.0,7.0,62,0.00,,,0.01,0,Wunderground v.1.15,2013-10-13 01:17:00,
2013-10-12 20:19:00,55.1,42.3,30.14,SW,228,5.0,7.0,62,0.00,,,0.01,0,Wunderground v.1.15,2013-10-13 01:19:00,
2013-10-12 20:20:00,55.1,42.3,30.14,SW,230,5.0,6.0,62,0.00,,,0.01,0,Wunderground v.1.15,2013-10-13 01:20:00,
2013-10-12 20:22:00,55.1,42.3,30.14,SW,230,3.0,6.0,62,0.00,,,0.01,0,Wunderground v.1.15,2013-10-13 01:22:00,
2013-10-12 20:23:00,55.1,42.3,30.14,SW,230,2.0,6.0,62,0.00,,,0.01,0,Wunderground v.1.15,2013-10-13 01:23:00,
2013-10-12 20:24:00,55.1,42.3,30.14,SW,230,6.0,6.0,62,0.00,,,0.01,0,Wunderground v.1.15,2013-10-13 01:24:00,
2013-10-12 20:26:00,55.0,42.6,30.14,SW,230,3.0,6.0,63,0.00,,,0.01,0,Wunderground v.1.15,2013-10-13 01:26:00,
2013-10-12 20:27:00,55.0,42.6,30.14,SW,230,4.0,6.0,63,0.00,,,0.01,0,Wunderground v.1.15,2013-10-13 01:27:00,
2013-10-12 20:28:00,55.0,42.6,30.14,SW,230,1.0,6.0,63,0.00,,,0.01,0,Wunderground v.1.15,2013-10-13 01:28:00,
2013-10-12 20:29:00,54.9,42.5,30.14,SW,230,2.0,6.0,63,0.00,,,0.01,0,Wunderground v.1.15,2013-10-13 01:29:00,
2013-10-12 20:30:00,54.9,42.5,30.14,SW,230,2.0,4.0,63,0.00,,,0.01,0,Wunderground v.1.15,2013-10-13 01:30:00,
2013-10-12 20:31:00,54.9,42.5,30.14,SW,230,2.0,4.0,63,0.00,,,0.01,0,Wunderground v.1.15,2013-10-13 01:31:00,
2013-10-12 20:32:00,54.8,42.4,30.14,SW,230,2.0,4.0,63,0.00,,,0.01,0,Wunderground v.1.15,2013-10-13 01:32:00,
2013-10-12 20:33:00,54.8,42.4,30.14,SW,230,3.0,4.0,63,0.00,,,0.01,0,Wunderground v.1.15,2013-10-13 01:33:00,
2013-10-12 20:34:00,54.8,42.4,30.15,SW,230,1.0,4.0,63,0.00,,,0.01,0,Wunderground v.1.15,2013-10-13 01:34:00,
2013-10-12 20:35:00,54.7,42.3,30.15,SW,230,2.0,4.0,63,0.00,,,0.01,0,Wunderground v.1.15,2013-10-13 01:35:00,
2013-10-12 20:36:00,54.7,42.3,30.15,SW,230,2.0,4.0,63,0.00,,,0.01,0,Wunderground v.1.15,2013-10-13 01:36:00,
2013-10-12 20:37:00,54.6,42.7,30.15,SW,230,1.0,4.0,64,0.00,,,0.01,0,Wunderground v.1.15,2013-10-13 01:37:00,
2013-10-12 20:38:00,54.6,42.7,30.15,SW,230,2.0,4.0,64,0.00,,,0.01,0,Wunderground v.1.15,2013-10-13 01:38:00,
2013-10-12 20:39:00,54.4,42.5,30.15,SW,230,1.0,2.0,64,0.00,,,0.01,0,Wunderground v.1.15,2013-10-13 01:39:00,
2013-10-12 20:41:00,54.4,42.5,30.15,SW,230,3.0,4.0,64,0.00,,,0.01,0,Wunderground v.1.15,2013-10-13 01:41:00,
2013-10-12 20:42:00,54.3,42.4,30.15,SW,230,3.0,4.0,64,0.00,,,0.01,0,Wunderground v.1.15,2013-10-13 01:42:00,
2013-10-12 20:43:00,54.2,42.3,30.15,SW,231,3.0,5.0,64,0.00,,,0.01,0,Wunderground v.1.15,2013-10-13 01:43:00,
2013-10-12 20:45:00,54.2,42.7,30.15,SW,231,4.0,5.0,65,0.00,,,0.01,0,Wunderground v.1.15,2013-10-13 01:45:00,
2013-10-12 20:46:00,54.2,42.7,30.15,SW,220,2.0,9.0,65,0.00,,,0.01,0,Wunderground v.1.15,2013-10-13 01:46:00,
2013-10-12 20:47:00,54.1,42.6,30.16,SW,221,6.0,9.0,65,0.00,,,0.01,0,Wunderground v.1.15,2013-10-13 01:47:00,
2013-10-12 20:48:00,54.1,42.6,30.16,SW,231,6.0,9.0,65,0.00,,,0.01,0,Wunderground v.1.15,2013-10-13 01:48:00,
2013-10-12 20:50:00,54.0,42.5,30.16,SW,230,8.0,11.0,65,0.00,,,0.01,0,Wunderground v.1.15,2013-10-13 01:50:00,
2013-10-12 20:51:00,54.0,42.5,30.16,SW,235,11.0,12.0,65,0.00,,,0.01,0,Wunderground v.1.15,2013-10-13 01:51:00,
2013-10-12 20:53:00,54.1,42.6,30.16,SW,226,10.0,12.0,65,0.00,,,0.01,0,Wunderground v.1.15,2013-10-13 01:53:00,
2013-10-12 20:54:00,54.1,42.6,30.16,WSW,249,3.0,12.0,65,0.00,,,0.01,0,Wunderground v.1.15,2013-10-13 01:54:00,
2013-10-12 20:55:00,54.2,42.3,30.16,SW,236,10.0,12.0,64,0.00,,,0.01,0,Wunderground v.1.15,2013-10-13 01:55:00,
2013-10-12 20:57:00,54.2,42.3,30.16,SW,232,4.0,12.0,64,0.00,,,0.01,0,Wunderground v.1.15,2013-10-13 01:57:00,
2013-10-12 20:58:00,54.2,42.3,30.16,WSW,238,7.0,12.0,64,0.00,,,0.01,0,Wunderground v.1.15,2013-10-13 01:58:00,
2013-10-12 20:59:00,54.2,42.3,30.16,SW,219,6.0,12.0,64,0.00,,,0.01,0,Wunderground v.1.15,2013-10-13 01:59:00,
2013-10-12 21:00:00,54.2,42.3,30.16,SW,221,6.0,8.0,64,0.00,,,0.01,0,Wunderground v.1.15,2013-10-13 02:00:00,
2013-10-12 21:02:00,54.1,42.2,30.16,SW,228,4.0,8.0,64,0.00,,,0.01,0,Wunderground v.1.15,2013-10-13 02:02:00,
2013-10-12 21:03:00,54.1,42.2,30.17,WSW,238,8.0,14.0,64,0.00,,,0.01,0,Wunderground v.1.15,2013-10-13 02:03:00,
2013-10-12 21:04:00,54.2,42.3,30.17,SSW,211,6.0,14.0,64,0.00,,,0.01,0,Wunderground v.1.15,2013-10-13 02:04:00,
2013-10-12 21:05:00,54.2,42.3,30.16,SW,218,6.0,14.0,64,0.00,,,0.01,0,Wunderground v.1.15,2013-10-13 02:05:00,
2013-10-12 21:07:00,54.2,42.3,30.16,SW,214,6.0,14.0,64,0.00,,,0.01,0,Wunderground v.1.15,2013-10-13 02:07:00,
2013-10-12 21:08:00,54.2,42.3,30.17,SW,230,7.0,14.0,64,0.00,,,0.01,0,Wunderground v.1.15,2013-10-13 02:08:00,
2013-10-12 21:09:00,54.1,42.2,30.17,SSW,212,8.0,14.0,64,0.00,,,0.01,0,Wunderground v.1.15,2013-10-13 02:09:00,
2013-10-12 21:10:00,54.1,42.2,30.17,SW,236,5.0,11.0,64,0.00,,,0.01,0,Wunderground v.1.15,2013-10-13 02:10:00,
2013-10-12 21:11:00,54.1,42.2,30.17,SW,232,4.0,11.0,64,0.00,,,0.01,0,Wunderground v.1.15,2013-10-13 02:11:00,
2013-10-12 21:12:00,54.1,42.2,30.17,SW,227,5.0,11.0,64,0.00,,,0.01,0,Wunderground v.1.15,2013-10-13 02:12:00,
2013-10-12 21:13:00,54.0,42.1,30.17,SW,225,10.0,13.0,64,0.00,,,0.01,0,Wunderground v.1.15,2013-10-13 02:13:00,
2013-10-12 21:14:00,54.1,41.8,30.17,WSW,237,7.0,13.0,63,0.00,,,0.01,0,Wunderground v.1.15,2013-10-13 02:14:00,
2013-10-12 21:15:00,54.1,42.2,30.17,WSW,238,6.0,13.0,64,0.00,,,0.01,0,Wunderground v.1.15,2013-10-13 02:15:00,
2013-10-12 21:16:00,54.1,42.2,30.17,SW,229,7.0,13.0,64,0.00,,,0.01,0,Wunderground v.1.15,2013-10-13 02:16:00,
2013-10-12 21:18:00,54.0,41.7,30.17,SW,227,6.0,13.0,63,0.00,,,0.01,0,Wunderground v.1.15,2013-10-13 02:18:00,
2013-10-12 21:19:00,54.0,41.7,30.17,SW,217,6.0,13.0,63,0.00,,,0.01,0,Wunderground v.1.15,2013-10-13 02:19:00,
2013-10-12 21:20:00,53.9,42.0,30.18,SW,227,6.0,8.0,64,0.00,,,0.01,0,Wunderground v.1.15,2013-10-13 02:20:00,
2013-10-12 21:21:00,53.9,42.0,30.18,WSW,248,10.0,11.0,64,0.00,,,0.01,0,Wunderground v.1.15,2013-10-13 02:21:00,
2013-10-12 21:23:00,53.8,41.9,30.18,SW,235,6.0,11.0,64,0.00,,,0.01,0,Wunderground v.1.15,2013-10-13 02:23:00,
2013-10-12 21:24:00,53.8,41.9,30.18,SW,223,5.0,11.0,64,0.00,,,0.01,0,Wunderground v.1.15,2013-10-13 02:24:00,
2013-10-12 21:25:00,53.7,41.8,30.18,WSW,238,3.0,11.0,64,0.00,,,0.01,0,Wunderground v.1.15,2013-10-13 02:25:00,
2013-10-12 21:26:00,53.7,41.8,30.18,SSW,213,5.0,12.0,64,0.00,,,0.01,0,Wunderground v.1.15,2013-10-13 02:26:00,
2013-10-12 21:28:00,53.6,41.7,30.18,SW,234,8.0,12.0,64,0.00,,,0.01,0,Wunderground v.1.15,2013-10-13 02:28:00,
2013-10-12 21:29:00,53.5,41.6,30.18,SW,225,5.0,6.0,64,0.00,,,0.01,0,Wunderground v.1.15,2013-10-13 02:29:00,
2013-10-12 21:30:00,53.5,41.6,30.18,SW,226,5.0,6.0,64,0.00,,,0.01,0,Wunderground v.1.15,2013-10-13 02:30:00,
2013-10-12 21:31:00,53.5,41.6,30.18,SW,229,5.0,10.0,64,0.00,,,0.01,0,Wunderground v.1.15,2013-10-13 02:31:00,
2013-10-12 21:32:00,53.5,41.6,30.18,SW,236,3.0,10.0,64,0.00,,,0.01,0,Wunderground v.1.15,2013-10-13 02:32:00,
2013-10-12 21:33:00,53.4,41.5,30.18,SW,227,4.0,10.0,64,0.00,,,0.01,0,Wunderground v.1.15,2013-10-13 02:33:00,
2013-10-12 21:34:00,53.4,41.5,30.18,SW,231,7.0,10.0,64,0.00,,,0.01,0,Wunderground v.1.15,2013-10-13 02:34:00,
2013-10-12 21:35:00,53.4,41.5,30.18,SW,231,4.0,10.0,64,0.00,,,0.01,0,Wunderground v.1.15,2013-10-13 02:35:00,
2013-10-12 21:36:00,53.3,41.4,30.18,SW,231,1.0,10.0,64,0.00,,,0.01,0,Wunderground v.1.15,2013-10-13 02:36:00,
2013-10-12 21:37:00,53.3,41.8,30.18,SW,232,4.0,10.0,65,0.00,,,0.01,0,Wunderground v.1.15,2013-10-13 02:37:00,
2013-10-12 21:39:00,53.2,41.7,30.18,SW,225,2.0,10.0,65,0.00,,,0.01,0,Wunderground v.1.15,2013-10-13 02:39:00,
2013-10-12 21:40:00,53.2,41.7,30.18,SW,225,2.0,4.0,65,0.00,,,0.01,0,Wunderground v.1.15,2013-10-13 02:40:00,
2013-10-12 21:41:00,53.2,41.7,30.18,SW,226,1.0,4.0,65,0.00,,,0.01,0,Wunderground v.1.15,2013-10-13 02:41:00,
2013-10-12 21:42:00,53.1,41.6,30.18,SW,226,1.0,4.0,65,0.00,,,0.01,0,Wunderground v.1.15,2013-10-13 02:42:00,
2013-10-12 21:44:00,52.9,41.4,30.18,SW,226,3.0,4.0,65,0.00,,,0.01,0,Wunderground v.1.15,2013-10-13 02:44:00,
2013-10-12 21:45:00,52.9,41.4,30.18,SW,226,2.0,4.0,65,0.00,,,0.01,0,Wunderground v.1.15,2013-10-13 02:45:00,
2013-10-12 21:46:00,52.8,41.4,30.18,SW,226,2.0,4.0,65,0.00,,,0.01,0,Wunderground v.1.15,2013-10-13 02:46:00,
2013-10-12 21:47:00,52.8,41.7,30.18,SW,226,1.0,4.0,66,0.00,,,0.01,0,Wunderground v.1.15,2013-10-13 02:47:00,
2013-10-12 21:50:00,52.5,41.5,30.18,SW,226,1.0,2.0,66,0.00,,,0.01,0,Wunderground v.1.15,2013-10-13 02:50:00,
2013-10-12 21:51:00,52.5,41.5,30.18,SW,226,1.0,2.0,66,0.00,,,0.01,0,Wunderground v.1.15,2013-10-13 02:51:00,
2013-10-12 21:52:00,52.4,41.4,30.18,SW,226,3.0,3.0,66,0.00,,,0.01,0,Wunderground v.1.15,2013-10-13 02:52:00,
2013-10-12 21:53:00,52.4,41.4,30.18,SW,226,0.0,3.0,66,0.00,,,0.01,0,Wunderground v.1.15,2013-10-13 02:53:00,
2013-10-12 21:56:00,52.1,41.5,30.18,SW,226,1.0,3.0,67,0.00,,,0.01,0,Wunderground v.1.15,2013-10-13 02:56:00,
2013-10-12 21:57:00,52.0,41.4,30.18,SW,226,2.0,3.0,67,0.00,,,0.01,0,Wunderground v.1.15,2013-10-13 02:57:00,
2013-10-12 21:59:00,51.9,41.3,30.18,SW,226,0.0,3.0,67,0.00,,,0.01,0,Wunderground v.1.15,2013-10-13 02:59:00,
2013-10-12 22:01:00,51.7,41.1,30.18,SW,226,0.0,1.0,67,0.00,,,0.01,0,Wunderground v.1.15,2013-10-13 03:01:00,
2013-10-12 22:02:00,51.7,41.5,30.18,SW,226,0.0,1.0,68,0.00,,,0.01,0,Wunderground v.1.15,2013-10-13 03:02:00,
2013-10-12 22:04:00,51.5,41.3,30.18,SW,226,0.0,1.0,68,0.00,,,0.01,0,Wunderground v.1.15,2013-10-13 03:04:00,
2013-10-12 22:06:00,51.4,41.2,30.18,SW,226,0.0,1.0,68,0.00,,,0.01,0,Wunderground v.1.15,2013-10-13 03:06:00,
2013-10-12 22:07:00,51.4,41.2,30.18,SW,226,1.0,1.0,68,0.00,,,0.01,0,Wunderground v.1.15,2013-10-13 03:07:00,
2013-10-12 22:08:00,51.3,41.1,30.18,SW,226,0.0,1.0,68,0.00,,,0.01,0,Wunderground v.1.15,2013-10-13 03:08:00,
2013-10-12 22:09:00,51.2,41.4,30.18,SW,226,0.0,1.0,69,0.00,,,0.01,0,Wunderground v.1.15,2013-10-13 03:09:00,
2013-10-12 22:11:00,51.0,41.2,30.18,SW,226,0.0,2.0,69,0.00,,,0.01,0,Wunderground v.1.15,2013-10-13 03:11:00,
2013-10-12 22:12:00,50.9,41.1,30.18,SW,226,1.0,2.0,69,0.00,,,0.01,0,Wunderground v.1.15,2013-10-13 03:12:00,
2013-10-12 22:14:00,50.8,41.0,30.18,SW,226,0.0,2.0,69,0.00,,,0.01,0,Wunderground v.1.15,2013-10-13 03:14:00,
2013-10-12 22:17:00,50.6,41.2,30.18,SW,226,1.0,2.0,70,0.00,,,0.01,0,Wunderground v.1.15,2013-10-13 03:17:00,
2013-10-12 22:18:00,50.6,41.2,30.19,SW,226,0.0,2.0,70,0.00,,,0.01,0,Wunderground v.1.15,2013-10-13 03:18:00,
2013-10-12 22:19:00,50.5,41.1,30.19,SW,226,1.0,3.0,70,0.00,,,0.01,0,Wunderground v.1.15,2013-10-13 03:19:00,
2013-10-12 22:22:00,50.4,41.0,30.19,SW,226,0.0,2.0,70,0.00,,,0.01,0,Wunderground v.1.15,2013-10-13 03:22:00,
2013-10-12 22:23:00,50.4,41.0,30.19,SW,226,0.0,2.0,70,0.00,,,0.01,0,Wunderground v.1.15,2013-10-13 03:23:00,
2013-10-12 22:24:00,50.4,41.0,30.19,SW,226,1.0,2.0,70,0.00,,,0.01,0,Wunderground v.1.15,2013-10-13 03:24:00,
2013-10-12 22:25:00,50.4,41.0,30.19,SW,226,0.0,2.0,70,0.00,,,0.01,0,Wunderground v.1.15,2013-10-13 03:25:00,
2013-10-12 22:28:00,50.3,40.9,30.18,SW,226,0.0,2.0,70,0.00,,,0.01,0,Wunderground v.1.15,2013-10-13 03:28:00,
2013-10-12 22:29:00,50.3,40.9,30.18,SW,226,0.0,0.0,70,0.00,,,0.01,0,Wunderground v.1.15,2013-10-13 03:29:00,
2013-10-12 22:30:00,50.3,40.9,30.18,SW,226,0.0,0.0,70,0.00,,,0.01,0,Wunderground v.1.15,2013-10-13 03:30:00,
2013-10-12 22:33:00,50.3,40.9,30.19,SW,226,0.0,0.0,70,0.00,,,0.01,0,Wunderground v.1.15,2013-10-13 03:33:00,
2013-10-12 22:34:00,50.3,40.9,30.19,SW,226,0.0,0.0,70,0.00,,,0.01,0,Wunderground v.1.15,2013-10-13 03:34:00,
2013-10-12 22:35:00,50.3,40.9,30.19,SW,226,0.0,1.0,70,0.00,,,0.01,0,Wunderground v.1.15,2013-10-13 03:35:00,
2013-10-12 22:38:00,50.2,40.8,30.19,SW,226,0.0,1.0,70,0.00,,,0.01,0,Wunderground v.1.15,2013-10-13 03:38:00,
2013-10-12 22:39:00,50.2,40.8,30.19,SW,226,0.0,1.0,70,0.00,,,0.01,0,Wunderground v.1.15,2013-10-13 03:39:00,
2013-10-12 22:40:00,50.2,40.8,30.19,SW,226,0.0,0.0,70,0.00,,,0.01,0,Wunderground v.1.15,2013-10-13 03:40:00,
2013-10-12 22:41:00,50.2,40.8,30.19,SW,226,1.0,1.0,70,0.00,,,0.01,0,Wunderground v.1.15,2013-10-13 03:41:00,
2013-10-12 22:43:00,50.2,40.8,30.19,SW,226,0.0,1.0,70,0.00,,,0.01,0,Wunderground v.1.15,2013-10-13 03:43:00,
2013-10-12 22:45:00,50.1,40.7,30.19,SW,226,0.0,1.0,70,0.00,,,0.01,0,Wunderground v.1.15,2013-10-13 03:45:00,
2013-10-12 22:46:00,50.1,40.7,30.19,SW,226,1.0,2.0,70,0.00,,,0.01,0,Wunderground v.1.15,2013-10-13 03:46:00,
2013-10-12 22:48:00,50.1,41.1,30.19,SW,226,1.0,2.0,71,0.00,,,0.01,0,Wunderground v.1.15,2013-10-13 03:48:00,
2013-10-12 22:49:00,50.1,41.1,30.19,SW,226,0.0,2.0,71,0.00,,,0.01,0,Wunderground v.1.15,2013-10-13 03:49:00,
2013-10-12 22:50:00,50.1,41.1,30.19,SW,226,0.0,0.0,71,0.00,,,0.01,0,Wunderground v.1.15,2013-10-13 03:50:00,
2013-10-12 22:51:00,50.1,41.1,30.19,SW,226,0.0,0.0,71,0.00,,,0.01,0,Wunderground v.1.15,2013-10-13 03:51:00,
2013-10-12 22:53:00,50.0,41.0,30.20,SW,226,0.0,0.0,71,0.00,,,0.01,0,Wunderground v.1.15,2013-10-13 03:53:00,
2013-10-12 22:54:00,49.9,40.9,30.20,SW,226,0.0,1.0,71,0.00,,,0.01,0,Wunderground v.1.15,2013-10-13 03:54:00,
2013-10-12 22:55:00,49.9,40.9,30.20,SW,226,0.0,1.0,71,0.00,,,0.01,0,Wunderground v.1.15,2013-10-13 03:55:00,
2013-10-12 22:56:00,49.9,40.9,30.20,SW,226,0.0,1.0,71,0.00,,,0.01,0,Wunderground v.1.15,2013-10-13 03:56:00,
2013-10-12 22:57:00,49.8,40.8,30.19,SW,226,1.0,1.0,71,0.00,,,0.01,0,Wunderground v.1.15,2013-10-13 03:57:00,
2013-10-12 22:58:00,49.7,40.7,30.19,SW,226,1.0,3.0,71,0.00,,,0.01,0,Wunderground v.1.15,2013-10-13 03:58:00,
2013-10-12 23:00:00,49.7,40.7,30.20,SW,226,0.0,0.0,71,0.00,,,0.01,0,Wunderground v.1.15,2013-10-13 04:00:00,
2013-10-12 23:01:00,49.6,40.9,30.20,SW,226,1.0,3.0,72,0.00,,,0.01,0,Wunderground v.1.15,2013-10-13 04:01:00,
2013-10-12 23:02:00,49.6,40.9,30.20,SW,226,0.0,3.0,72,0.00,,,0.01,0,Wunderground v.1.15,2013-10-13 04:02:00,
2013-10-12 23:06:00,49.3,40.7,30.20,SW,226,0.0,3.0,72,0.00,,,0.01,0,Wunderground v.1.15,2013-10-13 04:06:00,
2013-10-12 23:07:00,49.2,40.9,30.20,SW,226,0.0,4.0,73,0.00,,,0.01,0,Wunderground v.1.15,2013-10-13 04:07:00,
2013-10-12 23:08:00,49.2,40.9,30.20,SW,226,2.0,4.0,73,0.00,,,0.01,0,Wunderground v.1.15,2013-10-13 04:08:00,
2013-10-12 23:11:00,49.0,40.7,30.20,SW,226,1.0,3.0,73,0.00,,,0.01,0,Wunderground v.1.15,2013-10-13 04:11:00,
2013-10-12 23:12:00,49.0,40.7,30.21,SW,226,0.0,3.0,73,0.00,,,0.01,0,Wunderground v.1.15,2013-10-13 04:12:00,
2013-10-12 23:13:00,49.0,40.7,30.20,SW,226,0.0,3.0,73,0.00,,,0.01,0,Wunderground v.1.15,2013-10-13 04:13:00,
2013-10-12 23:16:00,48.9,40.6,30.21,SW,226,2.0,5.0,73,0.00,,,0.01,0,Wunderground v.1.15,2013-10-13 04:16:00,
2013-10-12 23:17:00,48.9,40.6,30.21,SW,232,5.0,6.0,73,0.00,,,0.01,0,Wunderground v.1.15,2013-10-13 04:17:00,
2013-10-12 23:18:00,48.8,40.5,30.21,SW,233,2.0,6.0,73,0.00,,,0.01,0,Wunderground v.1.15,2013-10-13 04:18:00,
2013-10-12 23:19:00,48.9,40.6,30.21,SW,230,4.0,6.0,73,0.00,,,0.01,0,Wunderground v.1.15,2013-10-13 04:19:00,
2013-10-12 23:21:00,49.0,40.7,30.21,SW,230,3.0,4.0,73,0.00,,,0.01,0,Wunderground v.1.15,2013-10-13 04:21:00,
2013-10-12 23:22:00,49.0,40.7,30.21,SW,230,5.0,5.0,73,0.00,,,0.01,0,Wunderground v.1.15,2013-10-13 04:22:00,
2013-10-12 23:23:00,49.0,40.7,30.21,SW,230,2.0,5.0,73,0.00,,,0.01,0,Wunderground v.1.15,2013-10-13 04:23:00,
2013-10-12 23:24:00,49.0,40.7,30.21,SW,230,3.0,5.0,73,0.00,,,0.01,0,Wunderground v.1.15,2013-10-13 04:24:00,
2013-10-12 23:26:00,49.0,40.7,30.21,SW,230,1.0,5.0,73,0.00,,,0.01,0,Wunderground v.1.15,2013-10-13 04:26:00,
2013-10-12 23:27:00,49.0,40.7,30.21,SW,230,2.0,5.0,73,0.00,,,0.01,0,Wunderground v.1.15,2013-10-13 04:27:00,
2013-10-12 23:28:00,49.0,40.7,30.21,SW,230,2.0,5.0,73,0.00,,,0.01,0,Wunderground v.1.15,2013-10-13 04:28:00,
2013-10-12 23:30:00,49.0,40.7,30.21,SW,230,3.0,3.0,73,0.00,,,0.01,0,Wunderground v.1.15,2013-10-13 04:30:00,
2013-10-12 23:32:00,49.0,40.4,30.22,SW,229,2.0,6.0,72,0.00,,,0.01,0,Wunderground v.1.15,2013-10-13 04:32:00,
2013-10-12 23:33:00,49.0,40.4,30.22,SW,229,2.0,6.0,72,0.00,,,0.01,0,Wunderground v.1.15,2013-10-13 04:33:00,
2013-10-12 23:35:00,49.0,40.4,30.22,SW,229,4.0,6.0,72,0.00,,,0.01,0,Wunderground v.1.15,2013-10-13 04:35:00,
2013-10-12 23:37:00,49.0,40.4,30.22,SW,230,3.0,6.0,72,0.00,,,0.01,0,Wunderground v.1.15,2013-10-13 04:37:00,
2013-10-12 23:38:00,49.0,40.4,30.22,SW,230,3.0,6.0,72,0.00,,,0.01,0,Wunderground v.1.15,2013-10-13 04:38:00,
2013-10-12 23:39:00,49.0,40.4,30.22,SW,230,2.0,6.0,72,0.00,,,0.01,0,Wunderground v.1.15,2013-10-13 04:39:00,
2013-10-12 23:40:00,49.0,40.4,30.22,SW,230,2.0,3.0,72,0.00,,,0.01,0,Wunderground v.1.15,2013-10-13 04:40:00,
2013-10-12 23:42:00,49.0,40.4,30.22,SW,231,3.0,5.0,72,0.00,,,0.01,0,Wunderground v.1.15,2013-10-13 04:42:00,
2013-10-12 23:43:00,49.0,40.4,30.22,SW,231,3.0,5.0,72,0.00,,,0.01,0,Wunderground v.1.15,2013-10-13 04:43:00,
2013-10-12 23:44:00,49.0,40.4,30.22,SW,231,0.0,5.0,72,0.00,,,0.01,0,Wunderground v.1.15,2013-10-13 04:44:00,
2013-10-12 23:45:00,49.0,40.4,30.22,SW,231,2.0,5.0,72,0.00,,,0.01,0,Wunderground v.1.15,2013-10-13 04:45:00,
2013-10-12 23:46:00,49.0,40.4,30.22,SW,230,2.0,5.0,72,0.00,,,0.01,0,Wunderground v.1.15,2013-10-13 04:46:00,
2013-10-12 23:47:00,49.0,40.4,30.22,SW,231,3.0,5.0,72,0.00,,,0.01,0,Wunderground v.1.15,2013-10-13 04:47:00,
2013-10-12 23:48:00,49.0,40.4,30.22,SW,230,2.0,5.0,72,0.00,,,0.01,0,Wunderground v.1.15,2013-10-13 04:48:00,
2013-10-12 23:49:00,49.0,40.4,30.22,SW,230,1.0,5.0,72,0.00,,,0.01,0,Wunderground v.1.15,2013-10-13 04:49:00,
2013-10-12 23:50:00,49.0,40.4,30.22,SW,231,2.0,3.0,72,0.00,,,0.01,0,Wunderground v.1.15,2013-10-13 04:50:00,
2013-10-12 23:51:00,48.9,40.3,30.22,SW,229,2.0,5.0,72,0.00,,,0.01,0,Wunderground v.1.15,2013-10-13 04:51:00,
2013-10-12 23:52:00,48.9,40.3,30.23,SW,229,1.0,5.0,72,0.00,,,0.01,0,Wunderground v.1.15,2013-10-13 04:52:00,
2013-10-12 23:53:00,48.9,40.3,30.22,SW,231,2.0,5.0,72,0.00,,,0.01,0,Wunderground v.1.15,2013-10-13 04:53:00,
2013-10-12 23:54:00,48.9,40.3,30.22,SW,231,2.0,5.0,72,0.00,,,0.01,0,Wunderground v.1.15,2013-10-13 04:54:00,
2013-10-12 23:55:00,48.9,40.3,30.22,SW,225,2.0,5.0,72,0.00,,,0.01,0,Wunderground v.1.15,2013-10-13 04:55:00,
2013-10-12 23:56:00,48.9,40.3,30.23,SW,236,5.0,6.0,72,0.00,,,0.01,0,Wunderground v.1.15,2013-10-13 04:56:00,
2013-10-12 23:57:00,49.0,40.0,30.23,SW,229,7.0,8.0,71,0.00,,,0.01,0,Wunderground v.1.15,2013-10-13 04:57:00,
2013-10-12 23:58:00,49.1,40.1,30.23,SW,227,4.0,8.0,71,0.00,,,0.01,0,Wunderground v.1.15,2013-10-13 04:58:00,
2013-10-12 23:59:00,49.1,40.1,30.23,SW,227,3.0,8.0,71,0.00,,,0.01,0,Wunderground v.1.15,2013-10-13 04:59:00,